Time,TemperatureF,DewpointF,PressureIn,WindDirection,WindDirectionDegrees,WindSpeedMPH,WindSpeedGustMPH,Humidity,HourlyPrecipIn,Conditions,Clouds,dailyrainin,SoftwareType,DateUTC
2013-05-17 00:02:00,54.8,30.3,29.87,ENE,70,9.0,9.0,39,0.00,,,0.00,Wunderground v.1.15,2013-05-17 05:02:00,
2013-05-17 00:04:00,54.8,30.9,29.87,ENE,69,6.0,11.0,40,0.00,,,0.00,Wunderground v.1.15,2013-05-17 05:04:00,
2013-05-17 00:07:00,54.8,31.5,29.87,NE,50,9.0,11.0,41,0.00,,,0.00,Wunderground v.1.15,2013-05-17 05:07:00,
2013-05-17 00:08:00,54.8,31.5,29.87,ENE,73,6.0,11.0,41,0.00,,,0.00,Wunderground v.1.15,2013-05-17 05:08:00,
2013-05-17 00:09:00,54.8,31.5,29.87,ENE,75,6.0,11.0,41,0.00,,,0.00,Wunderground v.1.15,2013-05-17 05:09:00,
2013-05-17 00:13:00,54.8,31.5,29.87,ENE,69,8.0,8.0,41,0.00,,,0.00,Wunderground v.1.15,2013-05-17 05:13:00,
2013-05-17 00:14:00,54.8,31.5,29.87,ENE,70,8.0,8.0,41,0.00,,,0.00,Wunderground v.1.15,2013-05-17 05:14:00,
2013-05-17 00:18:00,54.8,32.1,29.87,East,82,10.0,10.0,42,0.00,,,0.00,Wunderground v.1.15,2013-05-17 05:18:00,
2013-05-17 00:19:00,54.8,32.1,29.87,ENE,75,6.0,10.0,42,0.00,,,0.00,Wunderground v.1.15,2013-05-17 05:19:00,
2013-05-17 00:22:00,54.8,32.1,29.87,ENE,60,8.0,8.0,42,0.00,,,0.00,Wunderground v.1.15,2013-05-17 05:22:00,
2013-05-17 00:27:00,54.8,32.7,29.88,East,87,6.0,10.0,43,0.00,,,0.00,Wunderground v.1.15,2013-05-17 05:27:00,
2013-05-17 00:28:00,54.8,32.7,29.88,ENE,65,7.0,10.0,43,0.00,,,0.00,Wunderground v.1.15,2013-05-17 05:28:00,
2013-05-17 00:29:00,54.8,32.7,29.88,ENE,60,5.0,10.0,43,0.00,,,0.00,Wunderground v.1.15,2013-05-17 05:29:00,
2013-05-17 00:33:00,54.8,32.7,29.88,East,82,5.0,10.0,43,0.00,,,0.00,Wunderground v.1.15,2013-05-17 05:33:00,
2013-05-17 00:34:00,54.8,33.3,29.88,ENE,76,11.0,11.0,44,0.00,,,0.00,Wunderground v.1.15,2013-05-17 05:34:00,
2013-05-17 00:38:00,54.8,33.3,29.88,ENE,74,5.0,11.0,44,0.00,,,0.00,Wunderground v.1.15,2013-05-17 05:38:00,
2013-05-17 00:39:00,54.8,33.3,29.88,ENE,57,10.0,11.0,44,0.00,,,0.00,Wunderground v.1.15,2013-05-17 05:39:00,
2013-05-17 00:42:00,54.8,33.8,29.87,ENE,75,13.0,13.0,45,0.00,,,0.00,Wunderground v.1.15,2013-05-17 05:42:00,
2013-05-17 00:47:00,55.0,34.0,29.87,East,94,11.0,13.0,45,0.00,,,0.00,Wunderground v.1.15,2013-05-17 05:47:00,
2013-05-17 00:48:00,55.1,34.1,29.87,East,98,5.0,13.0,45,0.00,,,0.00,Wunderground v.1.15,2013-05-17 05:48:00,
2013-05-17 00:49:00,55.1,34.1,29.87,East,82,5.0,13.0,45,0.00,,,0.00,Wunderground v.1.15,2013-05-17 05:49:00,
2013-05-17 00:52:00,55.1,34.1,29.87,East,82,6.0,9.0,45,0.00,,,0.00,Wunderground v.1.15,2013-05-17 05:52:00,
2013-05-17 00:53:00,55.1,34.7,29.87,ENE,65,9.0,9.0,46,0.00,,,0.00,Wunderground v.1.15,2013-05-17 05:53:00,
2013-05-17 00:57:00,55.1,34.7,29.87,NE,56,7.0,9.0,46,0.00,,,0.00,Wunderground v.1.15,2013-05-17 05:57:00,
2013-05-17 00:58:00,55.1,34.7,29.87,NE,56,7.0,9.0,46,0.00,,,0.00,Wunderground v.1.15,2013-05-17 05:58:00,
2013-05-17 01:02:00,55.0,34.6,29.87,NE,56,7.0,7.0,46,0.00,,,0.00,Wunderground v.1.15,2013-05-17 06:02:00,
2013-05-17 01:03:00,55.0,35.1,29.87,NE,56,7.0,7.0,47,0.00,,,0.00,Wunderground v.1.15,2013-05-17 06:03:00,
2013-05-17 01:08:00,55.0,35.1,29.87,ENE,58,9.0,9.0,47,0.00,,,0.00,Wunderground v.1.15,2013-05-17 06:08:00,
2013-05-17 01:09:00,55.0,35.1,29.87,East,82,9.0,9.0,47,0.00,,,0.00,Wunderground v.1.15,2013-05-17 06:09:00,
2013-05-17 01:12:00,55.0,35.1,29.87,ENE,64,10.0,10.0,47,0.00,,,0.00,Wunderground v.1.15,2013-05-17 06:12:00,
2013-05-17 01:13:00,55.0,35.7,29.87,East,82,4.0,10.0,48,0.00,,,0.00,Wunderground v.1.15,2013-05-17 06:13:00,
2013-05-17 01:18:00,55.0,35.7,29.87,ENE,66,9.0,11.0,48,0.00,,,0.00,Wunderground v.1.15,2013-05-17 06:18:00,
2013-05-17 01:23:00,54.8,35.5,29.87,ENE,58,9.0,9.0,48,0.00,,,0.00,Wunderground v.1.15,2013-05-17 06:23:00,
2013-05-17 01:24:00,54.8,35.5,29.87,East,82,5.0,9.0,48,0.00,,,0.00,Wunderground v.1.15,2013-05-17 06:24:00,
2013-05-17 01:28:00,54.8,35.5,29.87,East,84,11.0,11.0,48,0.00,,,0.00,Wunderground v.1.15,2013-05-17 06:28:00,
2013-05-17 01:29:00,54.8,36.0,29.87,East,82,7.0,11.0,49,0.00,,,0.00,Wunderground v.1.15,2013-05-17 06:29:00,
2013-05-17 01:33:00,54.8,36.0,29.87,East,84,6.0,7.0,49,0.00,,,0.00,Wunderground v.1.15,2013-05-17 06:33:00,
2013-05-17 01:37:00,54.8,36.0,29.87,ESE,103,4.0,8.0,49,0.00,,,0.00,Wunderground v.1.15,2013-05-17 06:37:00,
2013-05-17 01:38:00,54.8,36.0,29.87,ENE,75,7.0,8.0,49,0.00,,,0.00,Wunderground v.1.15,2013-05-17 06:38:00,
2013-05-17 01:42:00,55.0,36.2,29.87,East,98,6.0,8.0,49,0.00,,,0.00,Wunderground v.1.15,2013-05-17 06:42:00,
2013-05-17 01:43:00,55.0,36.2,29.87,ESE,108,9.0,9.0,49,0.00,,,0.00,Wunderground v.1.15,2013-05-17 06:43:00,
2013-05-17 01:44:00,55.1,36.3,29.87,East,89,8.0,9.0,49,0.00,,,0.00,Wunderground v.1.15,2013-05-17 06:44:00,
2013-05-17 01:49:00,55.1,36.3,29.87,ENE,73,7.0,9.0,49,0.00,,,0.00,Wunderground v.1.15,2013-05-17 06:49:00,
2013-05-17 01:52:00,55.3,36.5,29.87,East,90,12.0,12.0,49,0.00,,,0.00,Wunderground v.1.15,2013-05-17 06:52:00,
2013-05-17 01:53:00,55.3,36.5,29.87,East,80,4.0,12.0,49,0.00,,,0.00,Wunderground v.1.15,2013-05-17 06:53:00,
2013-05-17 01:57:00,55.3,36.5,29.88,East,82,5.0,12.0,49,0.00,,,0.00,Wunderground v.1.15,2013-05-17 06:57:00,
2013-05-17 01:58:00,55.3,36.5,29.88,ENE,69,5.0,12.0,49,0.00,,,0.00,Wunderground v.1.15,2013-05-17 06:58:00,
2013-05-17 02:02:00,55.4,36.5,29.88,East,92,4.0,7.0,49,0.00,,,0.00,Wunderground v.1.15,2013-05-17 07:02:00,
2013-05-17 02:03:00,55.4,36.5,29.88,East,90,4.0,10.0,49,0.00,,,0.00,Wunderground v.1.15,2013-05-17 07:03:00,
2013-05-17 02:07:00,55.4,36.5,29.88,ENE,78,9.0,14.0,49,0.00,,,0.00,Wunderground v.1.15,2013-05-17 07:07:00,
2013-05-17 02:08:00,55.4,36.5,29.88,East,80,7.0,14.0,49,0.00,,,0.00,Wunderground v.1.15,2013-05-17 07:08:00,
2013-05-17 02:09:00,55.4,36.5,29.88,ENE,77,5.0,14.0,49,0.00,,,0.00,Wunderground v.1.15,2013-05-17 07:09:00,
2013-05-17 02:12:00,55.4,37.1,29.87,ENE,74,10.0,10.0,50,0.00,,,0.00,Wunderground v.1.15,2013-05-17 07:12:00,
2013-05-17 02:13:00,55.4,37.1,29.87,East,91,8.0,10.0,50,0.00,,,0.00,Wunderground v.1.15,2013-05-17 07:13:00,
2013-05-17 02:14:00,55.4,36.5,29.87,East,86,7.0,12.0,49,0.00,,,0.00,Wunderground v.1.15,2013-05-17 07:14:00,
2013-05-17 02:17:00,55.3,36.5,29.87,East,82,5.0,12.0,49,0.00,,,0.00,Wunderground v.1.15,2013-05-17 07:17:00,
2013-05-17 02:18:00,55.3,36.5,29.87,East,79,8.0,12.0,49,0.00,,,0.00,Wunderground v.1.15,2013-05-17 07:18:00,
2013-05-17 02:19:00,55.4,36.5,29.87,ENE,75,4.0,12.0,49,0.00,,,0.00,Wunderground v.1.15,2013-05-17 07:19:00,
2013-05-17 02:22:00,55.3,36.5,29.87,ESE,103,3.0,7.0,49,0.00,,,0.00,Wunderground v.1.15,2013-05-17 07:22:00,
2013-05-17 02:24:00,55.3,36.5,29.87,East,81,6.0,9.0,49,0.00,,,0.00,Wunderground v.1.15,2013-05-17 07:24:00,
2013-05-17 02:27:00,55.1,36.8,29.88,NE,49,5.0,12.0,50,0.00,,,0.00,Wunderground v.1.15,2013-05-17 07:27:00,
2013-05-17 02:28:00,55.1,36.8,29.88,East,83,8.0,12.0,50,0.00,,,0.00,Wunderground v.1.15,2013-05-17 07:28:00,
2013-05-17 02:29:00,55.1,36.3,29.88,East,85,6.0,12.0,49,0.00,,,0.00,Wunderground v.1.15,2013-05-17 07:29:00,
2013-05-17 02:30:00,55.1,36.3,29.88,East,89,5.0,12.0,49,0.00,,,0.00,Wunderground v.1.15,2013-05-17 07:30:00,
2013-05-17 02:33:00,55.1,36.3,29.88,ENE,70,8.0,8.0,49,0.00,,,0.00,Wunderground v.1.15,2013-05-17 07:33:00,
2013-05-17 02:34:00,55.1,36.3,29.88,East,88,7.0,8.0,49,0.00,,,0.00,Wunderground v.1.15,2013-05-17 07:34:00,
2013-05-17 02:35:00,55.1,36.3,29.88,East,84,7.0,8.0,49,0.00,,,0.00,Wunderground v.1.15,2013-05-17 07:35:00,
2013-05-17 02:38:00,55.0,36.2,29.88,NE,46,6.0,9.0,49,0.00,,,0.00,Wunderground v.1.15,2013-05-17 07:38:00,
2013-05-17 02:42:00,54.8,36.5,29.88,East,90,7.0,7.0,50,0.00,,,0.00,Wunderground v.1.15,2013-05-17 07:42:00,
2013-05-17 02:43:00,54.8,36.5,29.88,ENE,69,5.0,7.0,50,0.00,,,0.00,Wunderground v.1.15,2013-05-17 07:43:00,
2013-05-17 02:44:00,54.7,36.4,29.88,East,83,9.0,9.0,50,0.00,,,0.00,Wunderground v.1.15,2013-05-17 07:44:00,
2013-05-17 02:47:00,54.5,36.7,29.88,ENE,72,5.0,9.0,51,0.00,,,0.00,Wunderground v.1.15,2013-05-17 07:47:00,
2013-05-17 02:48:00,54.5,36.7,29.88,ENE,70,6.0,9.0,51,0.00,,,0.00,Wunderground v.1.15,2013-05-17 07:48:00,
2013-05-17 02:49:00,54.5,36.7,29.88,ENE,60,5.0,9.0,51,0.00,,,0.00,Wunderground v.1.15,2013-05-17 07:49:00,
2013-05-17 02:52:00,54.4,36.6,29.88,ENE,70,6.0,6.0,51,0.00,,,0.00,Wunderground v.1.15,2013-05-17 07:52:00,
2013-05-17 02:53:00,54.4,36.6,29.88,East,89,3.0,6.0,51,0.00,,,0.00,Wunderground v.1.15,2013-05-17 07:53:00,
2013-05-17 02:54:00,54.4,36.1,29.88,ENE,70,6.0,7.0,50,0.00,,,0.00,Wunderground v.1.15,2013-05-17 07:54:00,
2013-05-17 02:57:00,54.2,36.5,29.89,ESE,102,5.0,9.0,51,0.00,,,0.00,Wunderground v.1.15,2013-05-17 07:57:00,
2013-05-17 02:58:00,54.2,36.5,29.89,East,81,5.0,9.0,51,0.00,,,0.00,Wunderground v.1.15,2013-05-17 07:58:00,
2013-05-17 02:59:00,54.2,36.5,29.89,East,79,5.0,9.0,51,0.00,,,0.00,Wunderground v.1.15,2013-05-17 07:59:00,
2013-05-17 03:03:00,54.2,36.5,29.89,East,83,6.0,9.0,51,0.00,,,0.00,Wunderground v.1.15,2013-05-17 08:03:00,
2013-05-17 03:04:00,54.1,36.4,29.89,East,89,4.0,9.0,51,0.00,,,0.00,Wunderground v.1.15,2013-05-17 08:04:00,
2013-05-17 03:07:00,54.1,36.4,29.89,East,91,5.0,9.0,51,0.00,,,0.00,Wunderground v.1.15,2013-05-17 08:07:00,
2013-05-17 03:08:00,54.1,36.4,29.89,East,89,4.0,9.0,51,0.00,,,0.00,Wunderground v.1.15,2013-05-17 08:08:00,
2013-05-17 03:09:00,54.1,36.4,29.89,ENE,73,4.0,9.0,51,0.00,,,0.00,Wunderground v.1.15,2013-05-17 08:09:00,
2013-05-17 03:12:00,53.9,36.2,29.89,ENE,77,10.0,10.0,51,0.00,,,0.00,Wunderground v.1.15,2013-05-17 08:12:00,
2013-05-17 03:15:00,53.9,36.2,29.89,East,84,7.0,10.0,51,0.00,,,0.00,Wunderground v.1.15,2013-05-17 08:15:00,
2013-05-17 03:17:00,53.9,36.2,29.89,East,84,8.0,10.0,51,0.00,,,0.00,Wunderground v.1.15,2013-05-17 08:17:00,
2013-05-17 03:19:00,53.8,36.6,29.89,ENE,72,8.0,10.0,52,0.00,,,0.00,Wunderground v.1.15,2013-05-17 08:19:00,
2013-05-17 03:23:00,53.6,36.4,29.89,NE,53,4.0,6.0,52,0.00,,,0.00,Wunderground v.1.15,2013-05-17 08:23:00,
2013-05-17 03:24:00,53.5,36.8,29.89,ENE,64,7.0,9.0,53,0.00,,,0.00,Wunderground v.1.15,2013-05-17 08:24:00,
2013-05-17 03:27:00,53.3,36.6,29.89,ENE,61,6.0,9.0,53,0.00,,,0.00,Wunderground v.1.15,2013-05-17 08:27:00,
2013-05-17 03:28:00,53.3,36.1,29.89,ENE,69,6.0,9.0,52,0.00,,,0.00,Wunderground v.1.15,2013-05-17 08:28:00,
2013-05-17 03:29:00,53.3,36.1,29.89,East,91,4.0,9.0,52,0.00,,,0.00,Wunderground v.1.15,2013-05-17 08:29:00,
2013-05-17 03:32:00,53.3,36.1,29.89,East,93,3.0,6.0,52,0.00,,,0.00,Wunderground v.1.15,2013-05-17 08:32:00,
2013-05-17 03:33:00,53.3,36.1,29.89,East,86,7.0,7.0,52,0.00,,,0.00,Wunderground v.1.15,2013-05-17 08:33:00,
2013-05-17 03:35:00,53.3,36.1,29.89,East,87,6.0,7.0,52,0.00,,,0.00,Wunderground v.1.15,2013-05-17 08:35:00,
2013-05-17 03:38:00,53.3,36.1,29.89,East,89,7.0,10.0,52,0.00,,,0.00,Wunderground v.1.15,2013-05-17 08:38:00,
2013-05-17 03:40:00,53.3,36.1,29.89,East,91,7.0,10.0,52,0.00,,,0.00,Wunderground v.1.15,2013-05-17 08:40:00,
2013-05-17 03:42:00,53.3,36.1,29.89,East,98,5.0,5.0,52,0.00,,,0.00,Wunderground v.1.15,2013-05-17 08:42:00,
2013-05-17 03:43:00,53.3,36.1,29.89,East,89,5.0,6.0,52,0.00,,,0.00,Wunderground v.1.15,2013-05-17 08:43:00,
2013-05-17 03:47:00,53.3,36.1,29.89,East,86,5.0,6.0,52,0.00,,,0.00,Wunderground v.1.15,2013-05-17 08:47:00,
2013-05-17 03:49:00,53.2,36.5,29.89,East,88,3.0,9.0,53,0.00,,,0.00,Wunderground v.1.15,2013-05-17 08:49:00,
2013-05-17 03:51:00,53.2,36.5,29.89,East,87,4.0,9.0,53,0.00,,,0.00,Wunderground v.1.15,2013-05-17 08:51:00,
2013-05-17 03:52:00,53.2,36.5,29.89,East,82,5.0,7.0,53,0.00,,,0.00,Wunderground v.1.15,2013-05-17 08:52:00,
2013-05-17 03:53:00,53.1,36.4,29.89,East,81,3.0,7.0,53,0.00,,,0.00,Wunderground v.1.15,2013-05-17 08:53:00,
2013-05-17 03:54:00,53.1,36.4,29.89,East,82,3.0,7.0,53,0.00,,,0.00,Wunderground v.1.15,2013-05-17 08:54:00,
2013-05-17 03:57:00,52.9,36.7,29.89,East,82,4.0,7.0,54,0.00,,,0.00,Wunderground v.1.15,2013-05-17 08:57:00,
2013-05-17 03:59:00,52.8,36.6,29.89,East,84,6.0,9.0,54,0.00,,,0.00,Wunderground v.1.15,2013-05-17 08:59:00,
2013-05-17 04:03:00,52.8,36.6,29.89,ENE,70,6.0,7.0,54,0.00,,,0.00,Wunderground v.1.15,2013-05-17 09:03:00,
2013-05-17 04:04:00,52.6,36.9,29.89,ENE,70,5.0,7.0,55,0.00,,,0.00,Wunderground v.1.15,2013-05-17 09:04:00,
2013-05-17 04:06:00,52.5,36.8,29.89,ENE,70,4.0,7.0,55,0.00,,,0.00,Wunderground v.1.15,2013-05-17 09:06:00,
2013-05-17 04:08:00,52.5,36.8,29.89,ENE,76,7.0,7.0,55,0.00,,,0.00,Wunderground v.1.15,2013-05-17 09:08:00,
2013-05-17 04:09:00,52.3,36.6,29.89,ENE,64,6.0,8.0,55,0.00,,,0.00,Wunderground v.1.15,2013-05-17 09:09:00,
2013-05-17 04:12:00,52.3,36.6,29.89,ENE,70,8.0,8.0,55,0.00,,,0.00,Wunderground v.1.15,2013-05-17 09:12:00,
2013-05-17 04:13:00,52.2,36.5,29.89,ENE,70,9.0,11.0,55,0.00,,,0.00,Wunderground v.1.15,2013-05-17 09:13:00,
2013-05-17 04:14:00,52.2,36.5,29.89,East,89,8.0,11.0,55,0.00,,,0.00,Wunderground v.1.15,2013-05-17 09:14:00,
2013-05-17 04:18:00,52.0,36.3,29.89,NE,50,6.0,11.0,55,0.00,,,0.00,Wunderground v.1.15,2013-05-17 09:18:00,
2013-05-17 04:19:00,52.0,36.3,29.89,ENE,58,4.0,11.0,55,0.00,,,0.00,Wunderground v.1.15,2013-05-17 09:19:00,
2013-05-17 04:20:00,52.0,36.3,29.89,ENE,60,8.0,11.0,55,0.00,,,0.00,Wunderground v.1.15,2013-05-17 09:20:00,
2013-05-17 04:23:00,51.9,36.7,29.89,NE,45,8.0,10.0,56,0.00,,,0.00,Wunderground v.1.15,2013-05-17 09:23:00,
2013-05-17 04:24:00,51.9,36.7,29.89,ENE,58,6.0,10.0,56,0.00,,,0.00,Wunderground v.1.15,2013-05-17 09:24:00,
2013-05-17 04:25:00,51.9,36.7,29.89,East,84,10.0,10.0,56,0.00,,,0.00,Wunderground v.1.15,2013-05-17 09:25:00,
2013-05-17 04:28:00,51.7,36.9,29.89,NE,53,10.0,13.0,57,0.00,,,0.00,Wunderground v.1.15,2013-05-17 09:28:00,
2013-05-17 04:29:00,51.7,36.9,29.89,ENE,67,4.0,13.0,57,0.00,,,0.00,Wunderground v.1.15,2013-05-17 09:29:00,
2013-05-17 04:33:00,51.4,36.7,29.89,NE,56,11.0,11.0,57,0.00,,,0.00,Wunderground v.1.15,2013-05-17 09:33:00,
2013-05-17 04:34:00,51.4,36.7,29.89,East,99,10.0,11.0,57,0.00,,,0.00,Wunderground v.1.15,2013-05-17 09:34:00,
2013-05-17 04:35:00,51.4,36.7,29.89,NE,49,7.0,11.0,57,0.00,,,0.00,Wunderground v.1.15,2013-05-17 09:35:00,
2013-05-17 04:39:00,51.3,37.0,29.89,ENE,68,3.0,11.0,58,0.00,,,0.00,Wunderground v.1.15,2013-05-17 09:39:00,
2013-05-17 04:40:00,51.3,37.0,29.89,ENE,69,9.0,11.0,58,0.00,,,0.00,Wunderground v.1.15,2013-05-17 09:40:00,
2013-05-17 04:41:00,51.1,36.8,29.90,East,97,7.0,11.0,58,0.00,,,0.00,Wunderground v.1.15,2013-05-17 09:41:00,
2013-05-17 04:45:00,51.1,36.8,29.90,NE,49,6.0,9.0,58,0.00,,,0.00,Wunderground v.1.15,2013-05-17 09:45:00,
2013-05-17 04:47:00,51.1,36.8,29.90,ENE,77,10.0,10.0,58,0.00,,,0.00,Wunderground v.1.15,2013-05-17 09:47:00,
2013-05-17 04:49:00,51.1,36.8,29.90,East,82,9.0,10.0,58,0.00,,,0.00,Wunderground v.1.15,2013-05-17 09:49:00,
2013-05-17 04:52:00,51.1,36.8,29.90,ENE,64,6.0,7.0,58,0.00,,,0.00,Wunderground v.1.15,2013-05-17 09:52:00,
2013-05-17 04:53:00,51.1,36.8,29.90,East,82,10.0,10.0,58,0.00,,,0.00,Wunderground v.1.15,2013-05-17 09:53:00,
2013-05-17 04:54:00,51.1,36.8,29.90,NE,50,6.0,11.0,58,0.00,,,0.00,Wunderground v.1.15,2013-05-17 09:54:00,
2013-05-17 04:58:00,51.1,36.8,29.90,ENE,60,8.0,11.0,58,0.00,,,0.00,Wunderground v.1.15,2013-05-17 09:58:00,
2013-05-17 04:59:00,51.0,36.7,29.90,East,79,4.0,11.0,58,0.00,,,0.00,Wunderground v.1.15,2013-05-17 09:59:00,
2013-05-17 05:00:00,51.0,36.7,29.90,East,96,6.0,11.0,58,0.00,,,0.00,Wunderground v.1.15,2013-05-17 10:00:00,
2013-05-17 05:04:00,51.0,36.7,29.90,NE,53,7.0,8.0,58,0.00,,,0.00,Wunderground v.1.15,2013-05-17 10:04:00,
2013-05-17 05:07:00,50.8,37.0,29.90,ENE,67,8.0,8.0,59,0.00,,,0.00,Wunderground v.1.15,2013-05-17 10:07:00,
2013-05-17 05:09:00,50.8,37.0,29.90,ENE,72,4.0,11.0,59,0.00,,,0.00,Wunderground v.1.15,2013-05-17 10:09:00,
2013-05-17 05:12:00,50.8,37.0,29.91,NE,49,8.0,8.0,59,0.00,,,0.00,Wunderground v.1.15,2013-05-17 10:12:00,
2013-05-17 05:13:00,50.8,37.0,29.91,ENE,75,5.0,8.0,59,0.00,,,0.00,Wunderground v.1.15,2013-05-17 10:13:00,
2013-05-17 05:15:00,50.8,37.0,29.91,East,82,5.0,8.0,59,0.00,,,0.00,Wunderground v.1.15,2013-05-17 10:15:00,
2013-05-17 05:18:00,50.8,37.0,29.91,ESE,108,2.0,8.0,59,0.00,,,0.00,Wunderground v.1.15,2013-05-17 10:18:00,
2013-05-17 05:19:00,50.8,37.0,29.91,East,84,5.0,8.0,59,0.00,,,0.00,Wunderground v.1.15,2013-05-17 10:19:00,
2013-05-17 05:22:00,50.8,37.0,29.91,ENE,75,4.0,4.0,59,0.00,,,0.00,Wunderground v.1.15,2013-05-17 10:22:00,
2013-05-17 05:24:00,50.8,37.0,29.91,ENE,78,2.0,9.0,59,0.00,,,0.00,Wunderground v.1.15,2013-05-17 10:24:00,
2013-05-17 05:27:00,50.8,37.0,29.92,East,90,9.0,9.0,59,0.00,,,0.00,Wunderground v.1.15,2013-05-17 10:27:00,
2013-05-17 05:28:00,50.8,37.0,29.92,ENE,66,6.0,9.0,59,0.00,,,0.00,Wunderground v.1.15,2013-05-17 10:28:00,
2013-05-17 05:29:00,50.8,37.0,29.92,East,83,9.0,10.0,59,0.00,,,0.00,Wunderground v.1.15,2013-05-17 10:29:00,
2013-05-17 05:30:00,51.0,37.6,29.92,ENE,70,5.0,10.0,60,0.00,,,0.00,Wunderground v.1.15,2013-05-17 10:30:00,
2013-05-17 05:33:00,51.0,37.2,29.92,ENE,65,4.0,6.0,59,0.00,,,0.00,Wunderground v.1.15,2013-05-17 10:33:00,
2013-05-17 05:34:00,51.0,37.6,29.92,East,80,8.0,8.0,60,0.00,,,0.00,Wunderground v.1.15,2013-05-17 10:34:00,
2013-05-17 05:37:00,51.0,37.6,29.92,East,79,7.0,8.0,60,0.00,,,0.00,Wunderground v.1.15,2013-05-17 10:37:00,
2013-05-17 05:38:00,51.0,37.6,29.92,ENE,74,5.0,8.0,60,0.00,,,0.00,Wunderground v.1.15,2013-05-17 10:38:00,
2013-05-17 05:39:00,51.0,37.6,29.92,East,86,9.0,9.0,60,0.00,,,0.00,Wunderground v.1.15,2013-05-17 10:39:00,
2013-05-17 05:44:00,51.0,37.6,29.92,NE,51,6.0,10.0,60,0.00,,,0.00,Wunderground v.1.15,2013-05-17 10:44:00,
2013-05-17 05:47:00,51.0,37.6,29.92,ESE,108,4.0,10.0,60,0.00,,,0.00,Wunderground v.1.15,2013-05-17 10:47:00,
2013-05-17 05:49:00,51.0,38.0,29.92,East,96,6.0,10.0,61,0.00,,,0.00,Wunderground v.1.15,2013-05-17 10:49:00,
2013-05-17 05:50:00,51.0,38.0,29.92,East,96,9.0,10.0,61,0.00,,,0.00,Wunderground v.1.15,2013-05-17 10:50:00,
2013-05-17 05:53:00,51.1,38.1,29.92,East,88,11.0,11.0,61,0.00,,,0.00,Wunderground v.1.15,2013-05-17 10:53:00,
2013-05-17 05:54:00,51.1,38.1,29.92,ENE,77,7.0,11.0,61,0.00,,,0.00,Wunderground v.1.15,2013-05-17 10:54:00,
2013-05-17 05:57:00,51.3,38.3,29.92,ESE,115,6.0,11.0,61,0.00,,,0.00,Wunderground v.1.15,2013-05-17 10:57:00,
2013-05-17 05:58:00,51.3,38.3,29.92,East,93,7.0,11.0,61,0.00,,,0.00,Wunderground v.1.15,2013-05-17 10:58:00,
2013-05-17 06:00:00,51.4,38.4,29.92,East,79,5.0,11.0,61,0.00,,,0.00,Wunderground v.1.15,2013-05-17 11:00:00,
2013-05-17 06:03:00,51.6,38.6,29.92,ESE,102,6.0,10.0,61,0.00,,,0.00,Wunderground v.1.15,2013-05-17 11:03:00,
2013-05-17 06:04:00,51.6,38.6,29.92,ESE,103,7.0,10.0,61,0.00,,,0.00,Wunderground v.1.15,2013-05-17 11:04:00,
2013-05-17 06:05:00,51.7,39.1,29.92,East,100,6.0,13.0,62,0.00,,,0.00,Wunderground v.1.15,2013-05-17 11:05:00,
2013-05-17 06:09:00,51.9,39.3,29.92,East,98,7.0,13.0,62,0.00,,,0.00,Wunderground v.1.15,2013-05-17 11:09:00,
2013-05-17 06:12:00,52.0,39.4,29.92,ENE,77,8.0,8.0,62,0.00,,,0.00,Wunderground v.1.15,2013-05-17 11:12:00,
2013-05-17 06:14:00,52.0,39.4,29.92,ENE,74,6.0,12.0,62,0.00,,,0.00,Wunderground v.1.15,2013-05-17 11:14:00,
2013-05-17 06:17:00,52.2,39.6,29.92,East,101,8.0,12.0,62,0.00,,,0.00,Wunderground v.1.15,2013-05-17 11:17:00,
2013-05-17 06:19:00,52.3,39.7,29.92,East,84,7.0,12.0,62,0.00,,,0.00,Wunderground v.1.15,2013-05-17 11:19:00,
2013-05-17 06:20:00,52.3,39.7,29.92,East,92,6.0,12.0,62,0.00,,,0.00,Wunderground v.1.15,2013-05-17 11:20:00,
2013-05-17 06:22:00,52.5,39.8,29.92,ESE,113,8.0,12.0,62,0.00,,,0.00,Wunderground v.1.15,2013-05-17 11:22:00,
2013-05-17 06:23:00,52.5,39.8,29.92,ESE,110,5.0,12.0,62,0.00,,,0.00,Wunderground v.1.15,2013-05-17 11:23:00,
2013-05-17 06:24:00,52.5,39.8,29.92,NE,53,7.0,12.0,62,0.00,,,0.00,Wunderground v.1.15,2013-05-17 11:24:00,
2013-05-17 06:27:00,52.6,39.9,29.92,ESE,106,3.0,12.0,62,0.00,,,0.00,Wunderground v.1.15,2013-05-17 11:27:00,
2013-05-17 06:28:00,52.8,40.1,29.92,East,101,8.0,12.0,62,0.00,,,0.00,Wunderground v.1.15,2013-05-17 11:28:00,
2013-05-17 06:32:00,52.9,40.6,29.92,ESE,105,11.0,11.0,63,0.00,,,0.00,Wunderground v.1.15,2013-05-17 11:32:00,
2013-05-17 06:33:00,53.1,40.4,29.92,ESE,113,5.0,11.0,62,0.00,,,0.00,Wunderground v.1.15,2013-05-17 11:33:00,
2013-05-17 06:34:00,53.1,40.4,29.92,ESE,113,10.0,11.0,62,0.00,,,0.00,Wunderground v.1.15,2013-05-17 11:34:00,
2013-05-17 06:35:00,53.1,40.8,29.92,ESE,117,6.0,11.0,63,0.00,,,0.00,Wunderground v.1.15,2013-05-17 11:35:00,
2013-05-17 06:38:00,53.2,40.9,29.92,ESE,113,5.0,12.0,63,0.00,,,0.00,Wunderground v.1.15,2013-05-17 11:38:00,
2013-05-17 06:39:00,53.2,40.9,29.92,East,99,9.0,12.0,63,0.00,,,0.00,Wunderground v.1.15,2013-05-17 11:39:00,
2013-05-17 06:42:00,53.3,41.0,29.93,East,100,6.0,9.0,63,0.00,,,0.00,Wunderground v.1.15,2013-05-17 11:42:00,
2013-05-17 06:43:00,53.3,41.0,29.93,ENE,73,9.0,10.0,63,0.00,,,0.00,Wunderground v.1.15,2013-05-17 11:43:00,
2013-05-17 06:47:00,53.5,41.2,29.93,East,90,10.0,10.0,63,0.00,,,0.00,Wunderground v.1.15,2013-05-17 11:47:00,
2013-05-17 06:48:00,53.6,41.3,29.93,ESE,103,10.0,10.0,63,0.00,,,0.00,Wunderground v.1.15,2013-05-17 11:48:00,
2013-05-17 06:49:00,53.6,41.3,29.93,East,85,11.0,11.0,63,0.00,,,0.00,Wunderground v.1.15,2013-05-17 11:49:00,
2013-05-17 06:53:00,53.8,41.5,29.93,ESE,112,6.0,9.0,63,0.00,,,0.00,Wunderground v.1.15,2013-05-17 11:53:00,
2013-05-17 06:54:00,53.8,41.5,29.93,East,96,11.0,11.0,63,0.00,,,0.00,Wunderground v.1.15,2013-05-17 11:54:00,
2013-05-17 06:55:00,53.8,41.5,29.92,ESE,102,9.0,12.0,63,0.00,,,0.00,Wunderground v.1.15,2013-05-17 11:55:00,
2013-05-17 06:58:00,53.8,41.5,29.92,ESE,112,6.0,12.0,63,0.00,,,0.00,Wunderground v.1.15,2013-05-17 11:58:00,
2013-05-17 07:00:00,53.8,41.9,29.92,East,90,9.0,12.0,64,0.00,,,0.00,Wunderground v.1.15,2013-05-17 12:00:00,
2013-05-17 07:03:00,53.8,41.9,29.92,East,87,5.0,9.0,64,0.00,,,0.00,Wunderground v.1.15,2013-05-17 12:03:00,
2013-05-17 07:04:00,53.8,41.9,29.92,East,96,6.0,9.0,64,0.00,,,0.00,Wunderground v.1.15,2013-05-17 12:04:00,
2013-05-17 07:05:00,53.9,42.0,29.92,ESE,109,5.0,10.0,64,0.00,,,0.00,Wunderground v.1.15,2013-05-17 12:05:00,
2013-05-17 07:08:00,53.9,42.0,29.92,ESE,103,5.0,10.0,64,0.00,,,0.00,Wunderground v.1.15,2013-05-17 12:08:00,
2013-05-17 07:09:00,53.9,42.0,29.92,East,99,4.0,10.0,64,0.00,,,0.00,Wunderground v.1.15,2013-05-17 12:09:00,
2013-05-17 07:13:00,53.9,42.4,29.94,East,96,9.0,11.0,65,0.00,,,0.00,Wunderground v.1.15,2013-05-17 12:13:00,
2013-05-17 07:14:00,53.8,42.3,29.94,East,84,6.0,11.0,65,0.00,,,0.00,Wunderground v.1.15,2013-05-17 12:14:00,
2013-05-17 07:18:00,53.8,42.3,29.94,NE,41,5.0,11.0,65,0.00,,,0.00,Wunderground v.1.15,2013-05-17 12:18:00,
2013-05-17 07:19:00,53.8,42.3,29.94,East,82,6.0,11.0,65,0.00,,,0.00,Wunderground v.1.15,2013-05-17 12:19:00,
2013-05-17 07:20:00,53.8,42.3,29.94,East,99,5.0,11.0,65,0.00,,,0.00,Wunderground v.1.15,2013-05-17 12:20:00,
2013-05-17 07:22:00,53.8,42.3,29.94,ENE,72,4.0,7.0,65,0.00,,,0.00,Wunderground v.1.15,2013-05-17 12:22:00,
2013-05-17 07:23:00,53.8,42.3,29.94,East,79,3.0,7.0,65,0.00,,,0.00,Wunderground v.1.15,2013-05-17 12:23:00,
2013-05-17 07:24:00,53.8,42.3,29.94,ENE,58,5.0,7.0,65,0.00,,,0.00,Wunderground v.1.15,2013-05-17 12:24:00,
2013-05-17 07:27:00,53.8,42.7,29.96,ENE,67,3.0,7.0,66,0.00,,,0.00,Wunderground v.1.15,2013-05-17 12:27:00,
2013-05-17 07:29:00,53.6,43.3,29.96,East,80,6.0,10.0,68,0.00,,,0.00,Wunderground v.1.15,2013-05-17 12:29:00,
2013-05-17 07:32:00,53.5,43.6,29.96,East,91,6.0,6.0,69,0.00,,,0.00,Wunderground v.1.15,2013-05-17 12:32:00,
2013-05-17 07:34:00,53.2,44.0,29.96,ENE,67,10.0,10.0,71,0.00,,,0.00,Wunderground v.1.15,2013-05-17 12:34:00,
2013-05-17 07:35:00,53.2,44.0,29.96,East,89,9.0,10.0,71,0.00,,,0.00,Wunderground v.1.15,2013-05-17 12:35:00,
2013-05-17 07:39:00,52.8,44.4,29.96,East,80,5.0,10.0,73,0.00,,,0.00,Wunderground v.1.15,2013-05-17 12:39:00,
2013-05-17 07:40:00,52.8,44.4,29.96,NE,51,3.0,10.0,73,0.00,,,0.00,Wunderground v.1.15,2013-05-17 12:40:00,
2013-05-17 07:42:00,52.5,44.8,29.96,ENE,70,3.0,6.0,75,0.00,,,0.00,Wunderground v.1.15,2013-05-17 12:42:00,
2013-05-17 07:44:00,52.3,44.6,29.96,ESE,104,5.0,9.0,75,0.00,,,0.00,Wunderground v.1.15,2013-05-17 12:44:00,
2013-05-17 07:47:00,52.2,44.9,29.96,ENE,72,6.0,9.0,76,0.00,,,0.00,Wunderground v.1.15,2013-05-17 12:47:00,
2013-05-17 07:49:00,52.2,44.9,29.96,East,86,6.0,10.0,76,0.00,,,0.00,Wunderground v.1.15,2013-05-17 12:49:00,
2013-05-17 07:53:00,51.9,44.9,29.96,ENE,65,9.0,9.0,77,0.00,,,0.00,Wunderground v.1.15,2013-05-17 12:53:00,
2013-05-17 07:54:00,51.9,44.9,29.96,East,79,6.0,10.0,77,0.00,,,0.00,Wunderground v.1.15,2013-05-17 12:54:00,
2013-05-17 07:55:00,51.9,44.9,29.96,ENE,67,5.0,10.0,77,0.00,,,0.00,Wunderground v.1.15,2013-05-17 12:55:00,
2013-05-17 07:58:00,51.7,45.1,29.95,ENE,68,13.0,13.0,78,0.00,,,0.00,Wunderground v.1.15,2013-05-17 12:58:00,
2013-05-17 07:59:00,51.6,45.0,29.95,East,86,12.0,14.0,78,0.00,,,0.00,Wunderground v.1.15,2013-05-17 12:59:00,
2013-05-17 08:00:00,51.6,45.0,29.95,East,82,5.0,14.0,78,0.00,,,0.00,Wunderground v.1.15,2013-05-17 13:00:00,
2013-05-17 08:02:00,51.6,45.3,29.95,ENE,60,9.0,9.0,79,0.00,,,0.00,Wunderground v.1.15,2013-05-17 13:02:00,
2013-05-17 08:03:00,51.4,45.1,29.95,ENE,65,14.0,14.0,79,0.00,,,0.00,Wunderground v.1.15,2013-05-17 13:03:00,
2013-05-17 08:04:00,51.4,45.1,29.95,ENE,61,10.0,14.0,79,0.00,,,0.00,Wunderground v.1.15,2013-05-17 13:04:00,
2013-05-17 08:08:00,51.3,45.0,29.95,ENE,63,7.0,14.0,79,0.00,,,0.00,Wunderground v.1.15,2013-05-17 13:08:00,
2013-05-17 08:09:00,51.3,44.7,29.95,ENE,76,12.0,14.0,78,0.00,,,0.00,Wunderground v.1.15,2013-05-17 13:09:00,
2013-05-17 08:13:00,51.3,44.7,29.94,ENE,60,11.0,11.0,78,0.00,,,0.00,Wunderground v.1.15,2013-05-17 13:13:00,
2013-05-17 08:14:00,51.3,44.7,29.94,East,96,13.0,13.0,78,0.00,,,0.00,Wunderground v.1.15,2013-05-17 13:14:00,
2013-05-17 08:17:00,51.3,44.7,29.94,East,87,7.0,13.0,78,0.00,,,0.00,Wunderground v.1.15,2013-05-17 13:17:00,
2013-05-17 08:19:00,51.3,44.7,29.94,NE,56,11.0,13.0,78,0.00,,,0.00,Wunderground v.1.15,2013-05-17 13:19:00,
2013-05-17 08:20:00,51.4,44.8,29.94,ENE,68,4.0,13.0,78,0.00,,,0.00,Wunderground v.1.15,2013-05-17 13:20:00,
2013-05-17 08:21:00,51.4,44.4,29.94,ENE,70,11.0,13.0,77,0.00,,,0.00,Wunderground v.1.15,2013-05-17 13:21:00,
2013-05-17 08:22:00,51.4,44.8,29.94,NE,55,14.0,14.0,78,0.00,,,0.00,Wunderground v.1.15,2013-05-17 13:22:00,
2013-05-17 08:27:00,51.3,45.0,29.96,ENE,60,10.0,14.0,79,0.00,,,0.01,Wunderground v.1.15,2013-05-17 13:27:00,
2013-05-17 08:28:00,51.3,45.0,29.96,NE,40,6.0,14.0,79,0.00,,,0.01,Wunderground v.1.15,2013-05-17 13:28:00,
2013-05-17 08:29:00,51.3,45.0,29.96,NE,46,6.0,14.0,79,0.00,,,0.01,Wunderground v.1.15,2013-05-17 13:29:00,
2013-05-17 08:33:00,51.0,45.7,29.96,North,11,5.0,7.0,82,0.00,,,0.01,Wunderground v.1.15,2013-05-17 13:33:00,
2013-05-17 08:34:00,51.0,45.7,29.96,North,358,4.0,7.0,82,0.00,,,0.01,Wunderground v.1.15,2013-05-17 13:34:00,
2013-05-17 08:37:00,50.7,46.0,29.96,NW,326,4.0,10.0,84,0.06,,,0.02,Wunderground v.1.15,2013-05-17 13:37:00,
2013-05-17 08:38:00,50.7,46.0,29.96,NW,319,4.0,10.0,84,0.06,,,0.02,Wunderground v.1.15,2013-05-17 13:38:00,
2013-05-17 08:39:00,50.5,46.5,29.96,NW,323,3.0,10.0,86,0.06,,,0.02,Wunderground v.1.15,2013-05-17 13:39:00,
2013-05-17 08:42:00,50.4,46.4,30.00,NNW,339,4.0,5.0,86,0.09,,,0.02,Wunderground v.1.15,2013-05-17 13:42:00,
2013-05-17 08:43:00,50.2,46.2,30.00,NNE,27,6.0,6.0,86,0.09,,,0.03,Wunderground v.1.15,2013-05-17 13:43:00,
2013-05-17 08:47:00,49.9,46.2,30.00,NE,42,4.0,7.0,87,0.09,,,0.03,Wunderground v.1.15,2013-05-17 13:47:00,
2013-05-17 08:48:00,49.9,46.5,30.00,NE,35,7.0,7.0,88,0.09,,,0.03,Wunderground v.1.15,2013-05-17 13:48:00,
2013-05-17 08:49:00,49.8,46.4,30.00,NNE,30,8.0,8.0,88,0.09,,,0.03,Wunderground v.1.15,2013-05-17 13:49:00,
2013-05-17 08:53:00,49.5,46.4,30.00,NE,47,9.0,9.0,89,0.06,,,0.04,Wunderground v.1.15,2013-05-17 13:53:00,
2013-05-17 08:54:00,49.5,46.4,30.00,NE,52,11.0,11.0,89,0.06,,,0.04,Wunderground v.1.15,2013-05-17 13:54:00,
2013-05-17 08:55:00,49.4,46.3,30.00,NE,52,6.0,11.0,89,0.06,,,0.04,Wunderground v.1.15,2013-05-17 13:55:00,
2013-05-17 08:59:00,49.1,46.3,30.00,NE,37,12.0,12.0,90,0.06,,,0.04,Wunderground v.1.15,2013-05-17 13:59:00,
2013-05-17 09:00:00,49.1,46.3,30.00,NE,53,7.0,12.0,90,0.09,,,0.05,Wunderground v.1.15,2013-05-17 14:00:00,
2013-05-17 09:02:00,48.8,46.0,30.00,NE,49,7.0,8.0,90,0.09,,,0.05,Wunderground v.1.15,2013-05-17 14:02:00,
2013-05-17 09:03:00,48.8,46.0,30.00,NE,49,11.0,11.0,90,0.09,,,0.05,Wunderground v.1.15,2013-05-17 14:03:00,
2013-05-17 09:04:00,48.8,46.3,30.00,NE,42,4.0,11.0,91,0.09,,,0.05,Wunderground v.1.15,2013-05-17 14:04:00,
2013-05-17 09:05:00,48.8,46.3,30.00,East,81,6.0,11.0,91,0.09,,,0.05,Wunderground v.1.15,2013-05-17 14:05:00,
2013-05-17 09:07:00,48.6,46.1,30.00,ENE,62,15.0,15.0,91,0.08,,,0.05,Wunderground v.1.15,2013-05-17 14:07:00,
2013-05-17 09:08:00,48.6,46.1,30.00,NNE,24,7.0,15.0,91,0.07,,,0.05,Wunderground v.1.15,2013-05-17 14:08:00,
2013-05-17 09:12:00,48.5,46.3,30.00,ENE,64,7.0,8.0,92,0.06,,,0.06,Wunderground v.1.15,2013-05-17 14:12:00,
2013-05-17 09:13:00,48.5,46.3,30.00,NE,39,10.0,10.0,92,0.06,,,0.06,Wunderground v.1.15,2013-05-17 14:13:00,
2013-05-17 09:14:00,48.5,46.3,30.00,NNE,26,11.0,11.0,92,0.06,,,0.06,Wunderground v.1.15,2013-05-17 14:14:00,
2013-05-17 09:19:00,48.3,46.1,30.00,NNE,27,15.0,15.0,92,0.08,,,0.07,Wunderground v.1.15,2013-05-17 14:19:00,
2013-05-17 09:20:00,48.3,46.1,30.00,NE,35,9.0,16.0,92,0.08,,,0.07,Wunderground v.1.15,2013-05-17 14:20:00,
2013-05-17 09:22:00,48.0,46.1,30.00,ENE,75,6.0,10.0,93,0.08,,,0.07,Wunderground v.1.15,2013-05-17 14:22:00,
2013-05-17 09:24:00,47.9,46.0,30.00,NE,49,6.0,11.0,93,0.08,,,0.07,Wunderground v.1.15,2013-05-17 14:24:00,
2013-05-17 09:27:00,47.7,45.8,30.00,NNE,20,2.0,11.0,93,0.07,,,0.08,Wunderground v.1.15,2013-05-17 14:27:00,
2013-05-17 09:29:00,47.6,45.7,30.00,NNE,25,3.0,11.0,93,0.07,,,0.08,Wunderground v.1.15,2013-05-17 14:29:00,
2013-05-17 09:30:00,47.6,45.7,30.00,NNE,26,2.0,11.0,93,0.07,,,0.08,Wunderground v.1.15,2013-05-17 14:30:00,
2013-05-17 09:31:00,47.6,45.7,30.00,North,353,5.0,11.0,93,0.15,,,0.09,Wunderground v.1.15,2013-05-17 14:31:00,
2013-05-17 09:33:00,47.4,45.5,30.00,North,4,6.0,10.0,93,0.15,,,0.09,Wunderground v.1.15,2013-05-17 14:33:00,
2013-05-17 09:34:00,47.4,45.8,30.00,North,0,6.0,10.0,94,0.17,,,0.10,Wunderground v.1.15,2013-05-17 14:34:00,
2013-05-17 09:37:00,47.3,45.7,30.00,NNE,26,10.0,10.0,94,0.19,,,0.11,Wunderground v.1.15,2013-05-17 14:37:00,
2013-05-17 09:38:00,47.3,45.7,30.00,NE,40,5.0,10.0,94,0.19,,,0.11,Wunderground v.1.15,2013-05-17 14:38:00,
2013-05-17 09:39:00,47.3,45.7,30.00,NNE,17,7.0,10.0,94,0.19,,,0.11,Wunderground v.1.15,2013-05-17 14:39:00,
2013-05-17 09:42:00,47.1,45.5,30.02,North,2,6.0,10.0,94,0.18,,,0.12,Wunderground v.1.15,2013-05-17 14:42:00,
2013-05-17 09:43:00,47.0,45.4,30.02,North,9,11.0,11.0,94,0.21,,,0.12,Wunderground v.1.15,2013-05-17 14:43:00,
2013-05-17 09:44:00,47.0,45.4,30.02,North,0,9.0,11.0,94,0.21,,,0.13,Wunderground v.1.15,2013-05-17 14:44:00,
2013-05-17 09:48:00,47.0,45.6,30.02,NNW,330,4.0,11.0,95,0.18,,,0.14,Wunderground v.1.15,2013-05-17 14:48:00,
2013-05-17 09:52:00,47.0,45.6,30.02,NE,49,16.0,16.0,95,0.20,,,0.15,Wunderground v.1.15,2013-05-17 14:52:00,
2013-05-17 09:53:00,47.0,45.6,30.02,NE,37,19.0,19.0,95,0.18,,,0.15,Wunderground v.1.15,2013-05-17 14:53:00,
2013-05-17 09:54:00,46.8,45.4,30.02,NNE,13,10.0,19.0,95,0.18,,,0.16,Wunderground v.1.15,2013-05-17 14:54:00,
2013-05-17 09:58:00,46.8,45.4,30.01,East,79,6.0,19.0,95,0.22,,,0.17,Wunderground v.1.15,2013-05-17 14:58:00,
2013-05-17 09:59:00,46.8,45.4,30.01,NE,48,10.0,19.0,95,0.18,,,0.18,Wunderground v.1.15,2013-05-17 14:59:00,
2013-05-17 10:03:00,46.7,45.6,30.01,NE,41,11.0,19.0,96,0.22,,,0.19,Wunderground v.1.15,2013-05-17 15:03:00,
2013-05-17 10:04:00,46.7,45.6,30.01,East,79,15.0,19.0,96,0.22,,,0.19,Wunderground v.1.15,2013-05-17 15:04:00,
2013-05-17 10:09:00,46.5,45.4,30.01,ENE,76,11.0,19.0,96,0.24,,,0.21,Wunderground v.1.15,2013-05-17 15:09:00,
2013-05-17 10:12:00,46.5,45.4,30.01,ENE,65,6.0,14.0,96,0.19,,,0.22,Wunderground v.1.15,2013-05-17 15:12:00,
2013-05-17 10:13:00,46.5,45.4,30.01,NNE,23,15.0,15.0,96,0.23,,,0.23,Wunderground v.1.15,2013-05-17 15:13:00,
2013-05-17 10:14:00,46.5,45.4,30.01,ENE,64,11.0,15.0,96,0.23,,,0.23,Wunderground v.1.15,2013-05-17 15:14:00,
2013-05-17 10:15:00,46.5,45.4,30.01,NE,48,10.0,15.0,96,0.23,,,0.23,Wunderground v.1.15,2013-05-17 15:15:00,
2013-05-17 10:18:00,46.5,45.4,30.01,NE,53,14.0,15.0,96,0.19,,,0.24,Wunderground v.1.15,2013-05-17 15:18:00,
2013-05-17 10:19:00,46.7,45.6,30.01,ENE,57,9.0,15.0,96,0.24,,,0.25,Wunderground v.1.15,2013-05-17 15:19:00,
2013-05-17 10:22:00,46.7,45.6,30.01,NE,42,13.0,13.0,96,0.18,,,0.26,Wunderground v.1.15,2013-05-17 15:22:00,
2013-05-17 10:23:00,46.7,45.6,30.01,NNE,32,10.0,13.0,96,0.18,,,0.26,Wunderground v.1.15,2013-05-17 15:23:00,
2013-05-17 10:24:00,46.7,45.6,30.01,NE,55,7.0,13.0,96,0.18,,,0.26,Wunderground v.1.15,2013-05-17 15:24:00,
2013-05-17 10:27:00,46.8,45.7,30.00,ENE,66,11.0,13.0,96,0.19,,,0.27,Wunderground v.1.15,2013-05-17 15:27:00,
2013-05-17 10:28:00,46.8,45.7,30.00,ENE,75,9.0,13.0,96,0.19,,,0.27,Wunderground v.1.15,2013-05-17 15:28:00,
2013-05-17 10:29:00,46.8,45.7,30.00,NE,56,6.0,13.0,96,0.19,,,0.28,Wunderground v.1.15,2013-05-17 15:29:00,
2013-05-17 10:30:00,47.0,45.9,30.00,ENE,77,14.0,14.0,96,0.19,,,0.28,Wunderground v.1.15,2013-05-17 15:30:00,
2013-05-17 10:31:00,47.0,45.9,30.00,ENE,71,7.0,14.0,96,0.23,,,0.29,Wunderground v.1.15,2013-05-17 15:31:00,
2013-05-17 10:33:00,47.0,45.9,30.00,East,82,4.0,10.0,96,0.23,,,0.29,Wunderground v.1.15,2013-05-17 15:33:00,
2013-05-17 10:34:00,47.1,46.0,30.00,ENE,74,10.0,12.0,96,0.20,,,0.29,Wunderground v.1.15,2013-05-17 15:34:00,
2013-05-17 10:35:00,47.1,46.0,30.00,ENE,59,11.0,16.0,96,0.19,,,0.30,Wunderground v.1.15,2013-05-17 15:35:00,
2013-05-17 10:38:00,47.3,46.2,30.00,East,90,7.0,16.0,96,0.28,,,0.32,Wunderground v.1.15,2013-05-17 15:38:00,
2013-05-17 10:39:00,47.3,46.2,30.00,ENE,74,10.0,16.0,96,0.28,,,0.32,Wunderground v.1.15,2013-05-17 15:39:00,
2013-05-17 10:42:00,47.4,46.3,30.00,ENE,72,10.0,11.0,96,0.29,,,0.34,Wunderground v.1.15,2013-05-17 15:42:00,
2013-05-17 10:43:00,47.4,46.3,30.00,ENE,60,15.0,15.0,96,0.35,,,0.35,Wunderground v.1.15,2013-05-17 15:43:00,
2013-05-17 10:47:00,47.6,46.5,30.00,ENE,65,9.0,16.0,96,0.30,,,0.36,Wunderground v.1.15,2013-05-17 15:47:00,
2013-05-17 10:48:00,47.6,46.5,30.00,East,79,5.0,16.0,96,0.35,,,0.37,Wunderground v.1.15,2013-05-17 15:48:00,
2013-05-17 10:49:00,47.6,46.5,30.00,NE,48,5.0,16.0,96,0.32,,,0.37,Wunderground v.1.15,2013-05-17 15:49:00,
2013-05-17 10:50:00,47.7,46.6,30.00,NE,39,7.0,16.0,96,0.28,,,0.38,Wunderground v.1.15,2013-05-17 15:50:00,
2013-05-17 10:52:00,47.9,46.8,30.00,ENE,62,11.0,11.0,96,0.36,,,0.39,Wunderground v.1.15,2013-05-17 15:52:00,
2013-05-17 10:53:00,47.9,46.5,30.00,East,91,12.0,19.0,95,0.30,,,0.39,Wunderground v.1.15,2013-05-17 15:53:00,
2013-05-17 10:54:00,48.0,46.6,30.00,NE,51,7.0,19.0,95,0.30,,,0.40,Wunderground v.1.15,2013-05-17 15:54:00,
2013-05-17 10:57:00,48.2,46.8,30.00,ENE,75,12.0,19.0,95,0.28,,,0.42,Wunderground v.1.15,2013-05-17 15:57:00,
2013-05-17 10:58:00,48.2,46.8,30.00,East,87,9.0,19.0,95,0.28,,,0.42,Wunderground v.1.15,2013-05-17 15:58:00,
2013-05-17 11:00:00,48.2,46.8,30.00,ENE,70,15.0,19.0,95,0.35,,,0.43,Wunderground v.1.15,2013-05-17 16:00:00,
2013-05-17 11:01:00,48.3,46.9,30.00,East,82,6.0,19.0,95,0.26,,,0.44,Wunderground v.1.15,2013-05-17 16:01:00,
2013-05-17 11:03:00,48.5,47.1,30.00,East,82,6.0,16.0,95,0.33,,,0.45,Wunderground v.1.15,2013-05-17 16:03:00,
2013-05-17 11:04:00,48.6,47.2,30.00,ENE,78,15.0,16.0,95,0.33,,,0.45,Wunderground v.1.15,2013-05-17 16:04:00,
2013-05-17 11:08:00,48.9,47.5,30.00,ESE,117,10.0,16.0,95,0.32,,,0.47,Wunderground v.1.15,2013-05-17 16:08:00,
2013-05-17 11:09:00,48.9,47.5,30.00,East,84,9.0,16.0,95,0.26,,,0.47,Wunderground v.1.15,2013-05-17 16:09:00,
2013-05-17 11:10:00,48.9,47.2,30.00,East,82,10.0,16.0,94,0.25,,,0.48,Wunderground v.1.15,2013-05-17 16:10:00,
2013-05-17 11:13:00,49.2,47.5,30.00,East,82,7.0,12.0,94,0.27,,,0.49,Wunderground v.1.15,2013-05-17 16:13:00,
2013-05-17 11:14:00,49.2,47.5,30.00,East,84,8.0,12.0,94,0.25,,,0.50,Wunderground v.1.15,2013-05-17 16:14:00,
2013-05-17 11:19:00,49.2,47.3,30.00,ENE,77,14.0,14.0,93,0.22,,,0.52,Wunderground v.1.15,2013-05-17 16:19:00,
2013-05-17 11:22:00,49.2,47.3,30.00,ENE,73,6.0,9.0,93,0.24,,,0.53,Wunderground v.1.15,2013-05-17 16:22:00,
2013-05-17 11:23:00,49.4,47.5,30.00,East,96,15.0,15.0,93,0.24,,,0.53,Wunderground v.1.15,2013-05-17 16:23:00,
2013-05-17 11:24:00,49.4,47.5,30.00,East,94,9.0,15.0,93,0.17,,,0.53,Wunderground v.1.15,2013-05-17 16:24:00,
2013-05-17 11:25:00,49.4,47.5,30.00,ENE,69,6.0,15.0,93,0.17,,,0.54,Wunderground v.1.15,2013-05-17 16:25:00,
2013-05-17 11:28:00,49.5,47.3,30.00,ESE,122,7.0,15.0,92,0.18,,,0.55,Wunderground v.1.15,2013-05-17 16:28:00,
2013-05-17 11:33:00,49.9,47.7,30.00,East,92,12.0,12.0,92,0.11,,,0.55,Wunderground v.1.15,2013-05-17 16:33:00,
2013-05-17 11:34:00,49.9,47.7,30.00,East,86,9.0,12.0,92,0.10,,,0.55,Wunderground v.1.15,2013-05-17 16:34:00,
2013-05-17 11:35:00,49.9,47.7,30.00,East,81,10.0,12.0,92,0.08,,,0.55,Wunderground v.1.15,2013-05-17 16:35:00,
2013-05-17 11:38:00,50.1,47.6,30.00,East,89,7.0,12.0,91,0.06,,,0.55,Wunderground v.1.15,2013-05-17 16:38:00,
2013-05-17 11:39:00,50.1,47.6,30.00,East,99,11.0,12.0,91,0.05,,,0.55,Wunderground v.1.15,2013-05-17 16:39:00,
2013-05-17 11:42:00,50.4,47.9,30.00,East,98,9.0,12.0,91,0.04,,,0.55,Wunderground v.1.15,2013-05-17 16:42:00,
2013-05-17 11:43:00,50.4,47.6,30.00,NE,53,10.0,12.0,90,0.04,,,0.55,Wunderground v.1.15,2013-05-17 16:43:00,
2013-05-17 11:45:00,50.5,47.7,30.00,East,82,11.0,13.0,90,0.00,,,0.55,Wunderground v.1.15,2013-05-17 16:45:00,
2013-05-17 11:49:00,51.0,48.2,30.00,ENE,69,9.0,13.0,90,0.00,,,0.55,Wunderground v.1.15,2013-05-17 16:49:00,
2013-05-17 11:50:00,51.0,48.2,30.00,ENE,65,10.0,13.0,90,0.00,,,0.55,Wunderground v.1.15,2013-05-17 16:50:00,
2013-05-17 11:53:00,51.0,47.9,30.00,ENE,64,11.0,11.0,89,0.00,,,0.55,Wunderground v.1.15,2013-05-17 16:53:00,
2013-05-17 11:54:00,51.1,47.7,30.00,ENE,76,7.0,15.0,88,0.00,,,0.55,Wunderground v.1.15,2013-05-17 16:54:00,
2013-05-17 11:57:00,51.4,48.0,30.00,ENE,57,7.0,15.0,88,0.00,,,0.55,Wunderground v.1.15,2013-05-17 16:57:00,
2013-05-17 11:59:00,51.4,47.7,30.00,ENE,74,9.0,15.0,87,0.00,,,0.55,Wunderground v.1.15,2013-05-17 16:59:00,
2013-05-17 12:00:00,51.4,47.7,30.00,ENE,73,15.0,15.0,87,0.00,,,0.55,Wunderground v.1.15,2013-05-17 17:00:00,
2013-05-17 12:02:00,51.4,47.4,30.00,ENE,77,12.0,15.0,86,0.00,,,0.55,Wunderground v.1.15,2013-05-17 17:02:00,
2013-05-17 12:04:00,51.6,47.5,30.00,East,84,11.0,14.0,86,0.00,,,0.55,Wunderground v.1.15,2013-05-17 17:04:00,
2013-05-17 12:07:00,51.7,47.6,30.00,East,98,10.0,15.0,86,0.00,,,0.55,Wunderground v.1.15,2013-05-17 17:07:00,
2013-05-17 12:08:00,51.7,47.3,30.00,ENE,72,8.0,15.0,85,0.00,,,0.55,Wunderground v.1.15,2013-05-17 17:08:00,
2013-05-17 12:10:00,51.9,47.5,30.00,ENE,78,12.0,15.0,85,0.00,,,0.55,Wunderground v.1.15,2013-05-17 17:10:00,
2013-05-17 12:12:00,52.0,47.6,30.00,ENE,72,13.0,13.0,85,0.00,,,0.55,Wunderground v.1.15,2013-05-17 17:12:00,
2013-05-17 12:13:00,52.0,47.6,30.00,East,97,5.0,13.0,85,0.00,,,0.55,Wunderground v.1.15,2013-05-17 17:13:00,
2013-05-17 12:14:00,52.2,47.8,30.00,ENE,78,5.0,13.0,85,0.00,,,0.55,Wunderground v.1.15,2013-05-17 17:14:00,
2013-05-17 12:15:00,52.3,47.9,30.00,ESE,102,6.0,13.0,85,0.00,,,0.55,Wunderground v.1.15,2013-05-17 17:15:00,
2013-05-17 12:18:00,52.6,48.2,30.00,ESE,102,13.0,14.0,85,0.00,,,0.55,Wunderground v.1.15,2013-05-17 17:18:00,
2013-05-17 12:19:00,52.6,47.9,30.00,ESE,105,12.0,14.0,84,0.00,,,0.55,Wunderground v.1.15,2013-05-17 17:19:00,
2013-05-17 12:22:00,52.8,47.8,30.00,East,89,10.0,10.0,83,0.00,,,0.55,Wunderground v.1.15,2013-05-17 17:22:00,
2013-05-17 12:23:00,52.8,47.8,30.00,East,86,12.0,14.0,83,0.00,,,0.55,Wunderground v.1.15,2013-05-17 17:23:00,
2013-05-17 12:24:00,52.8,47.8,30.00,ESE,107,7.0,15.0,83,0.00,,,0.55,Wunderground v.1.15,2013-05-17 17:24:00,
2013-05-17 12:27:00,53.2,48.2,29.99,East,84,9.0,15.0,83,0.00,,,0.55,Wunderground v.1.15,2013-05-17 17:27:00,
2013-05-17 12:28:00,53.2,47.8,29.99,East,84,11.0,15.0,82,0.00,,,0.55,Wunderground v.1.15,2013-05-17 17:28:00,
2013-05-17 12:29:00,53.2,47.8,29.99,ENE,58,6.0,15.0,82,0.00,,,0.55,Wunderground v.1.15,2013-05-17 17:29:00,
2013-05-17 12:32:00,53.5,48.5,29.99,ESE,110,11.0,12.0,83,0.00,,,0.55,Wunderground v.1.15,2013-05-17 17:32:00,
2013-05-17 12:33:00,53.6,48.6,29.99,East,83,13.0,13.0,83,0.00,,,0.55,Wunderground v.1.15,2013-05-17 17:33:00,
2013-05-17 12:35:00,53.6,48.2,29.99,SE,125,14.0,16.0,82,0.00,,,0.55,Wunderground v.1.15,2013-05-17 17:35:00,
2013-05-17 12:36:00,53.8,48.1,29.99,ENE,72,9.0,16.0,81,0.00,,,0.55,Wunderground v.1.15,2013-05-17 17:36:00,
2013-05-17 12:37:00,53.8,48.1,29.99,ENE,62,6.0,16.0,81,0.00,,,0.55,Wunderground v.1.15,2013-05-17 17:37:00,
2013-05-17 12:39:00,53.8,48.1,29.99,ENE,59,5.0,16.0,81,0.00,,,0.55,Wunderground v.1.15,2013-05-17 17:39:00,
2013-05-17 12:42:00,53.6,47.9,29.99,ENE,68,7.0,9.0,81,0.00,,,0.55,Wunderground v.1.15,2013-05-17 17:42:00,
2013-05-17 12:43:00,53.6,47.9,29.99,ENE,63,9.0,10.0,81,0.00,,,0.55,Wunderground v.1.15,2013-05-17 17:43:00,
2013-05-17 12:44:00,53.6,47.9,29.99,ENE,63,12.0,12.0,81,0.00,,,0.55,Wunderground v.1.15,2013-05-17 17:44:00,
2013-05-17 12:47:00,53.8,48.1,29.99,ENE,77,10.0,12.0,81,0.00,,,0.55,Wunderground v.1.15,2013-05-17 17:47:00,
2013-05-17 12:48:00,53.9,48.2,29.99,ENE,57,5.0,12.0,81,0.00,,,0.55,Wunderground v.1.15,2013-05-17 17:48:00,
2013-05-17 12:49:00,53.9,47.9,29.99,ENE,67,12.0,13.0,80,0.00,,,0.55,Wunderground v.1.15,2013-05-17 17:49:00,
2013-05-17 12:51:00,53.8,47.8,29.99,ENE,75,7.0,13.0,80,0.00,,,0.55,Wunderground v.1.15,2013-05-17 17:51:00,
2013-05-17 12:53:00,54.1,48.4,29.99,East,98,7.0,10.0,81,0.00,,,0.55,Wunderground v.1.15,2013-05-17 17:53:00,
2013-05-17 12:54:00,54.1,48.4,29.99,ENE,68,4.0,10.0,81,0.00,,,0.55,Wunderground v.1.15,2013-05-17 17:54:00,
2013-05-17 12:57:00,54.1,47.7,29.99,ENE,68,13.0,13.0,79,0.00,,,0.55,Wunderground v.1.15,2013-05-17 17:57:00,
2013-05-17 12:58:00,53.9,47.5,29.99,East,96,11.0,13.0,79,0.00,,,0.55,Wunderground v.1.15,2013-05-17 17:58:00,
2013-05-17 12:59:00,53.9,47.5,29.99,East,87,12.0,13.0,79,0.00,,,0.55,Wunderground v.1.15,2013-05-17 17:59:00,
2013-05-17 13:03:00,53.9,47.2,29.99,ENE,77,13.0,18.0,78,0.00,,,0.55,Wunderground v.1.15,2013-05-17 18:03:00,
2013-05-17 13:04:00,53.8,47.1,29.99,East,88,11.0,18.0,78,0.00,,,0.55,Wunderground v.1.15,2013-05-17 18:04:00,
2013-05-17 13:08:00,53.8,47.4,29.99,East,83,5.0,18.0,79,0.00,,,0.55,Wunderground v.1.15,2013-05-17 18:08:00,
2013-05-17 13:09:00,53.9,47.5,29.99,ENE,66,5.0,18.0,79,0.00,,,0.55,Wunderground v.1.15,2013-05-17 18:09:00,
2013-05-17 13:10:00,53.9,47.5,29.99,East,79,4.0,18.0,79,0.00,,,0.55,Wunderground v.1.15,2013-05-17 18:10:00,
2013-05-17 13:13:00,53.8,46.8,29.99,East,91,12.0,14.0,77,0.00,,,0.55,Wunderground v.1.15,2013-05-17 18:13:00,
2013-05-17 13:17:00,53.8,47.1,29.99,East,84,13.0,16.0,78,0.00,,,0.55,Wunderground v.1.15,2013-05-17 18:17:00,
2013-05-17 13:18:00,53.8,46.8,29.99,East,101,12.0,17.0,77,0.00,,,0.55,Wunderground v.1.15,2013-05-17 18:18:00,
2013-05-17 13:19:00,53.8,46.4,29.99,ENE,71,14.0,17.0,76,0.00,,,0.55,Wunderground v.1.15,2013-05-17 18:19:00,
2013-05-17 13:24:00,54.1,46.7,29.99,ENE,70,10.0,10.0,76,0.00,,,0.55,Wunderground v.1.15,2013-05-17 18:24:00,
2013-05-17 13:27:00,54.2,46.8,29.99,ENE,75,6.0,11.0,76,0.00,,,0.55,Wunderground v.1.15,2013-05-17 18:27:00,
2013-05-17 13:29:00,54.2,46.8,29.99,NNE,20,5.0,11.0,76,0.00,,,0.55,Wunderground v.1.15,2013-05-17 18:29:00,
2013-05-17 13:32:00,54.1,46.3,29.99,ENE,70,12.0,12.0,75,0.00,,,0.55,Wunderground v.1.15,2013-05-17 18:32:00,
2013-05-17 13:34:00,54.1,46.3,29.99,ENE,60,12.0,13.0,75,0.00,,,0.55,Wunderground v.1.15,2013-05-17 18:34:00,
2013-05-17 13:35:00,54.1,46.3,29.99,ENE,75,6.0,13.0,75,0.00,,,0.55,Wunderground v.1.15,2013-05-17 18:35:00,
2013-05-17 13:36:00,54.1,46.3,29.99,East,91,13.0,13.0,75,0.00,,,0.55,Wunderground v.1.15,2013-05-17 18:36:00,
2013-05-17 13:37:00,54.1,46.3,29.99,East,99,11.0,15.0,75,0.00,,,0.55,Wunderground v.1.15,2013-05-17 18:37:00,
2013-05-17 13:40:00,53.9,45.8,29.99,East,87,8.0,15.0,74,0.00,,,0.55,Wunderground v.1.15,2013-05-17 18:40:00,
2013-05-17 13:42:00,53.9,45.8,29.99,NE,34,11.0,11.0,74,0.00,,,0.55,Wunderground v.1.15,2013-05-17 18:42:00,
2013-05-17 13:43:00,53.9,45.8,29.99,East,80,8.0,11.0,74,0.00,,,0.55,Wunderground v.1.15,2013-05-17 18:43:00,
2013-05-17 13:47:00,53.9,45.8,29.99,ENE,62,12.0,14.0,74,0.00,,,0.55,Wunderground v.1.15,2013-05-17 18:47:00,
2013-05-17 13:48:00,54.1,46.0,29.99,East,99,13.0,14.0,74,0.00,,,0.55,Wunderground v.1.15,2013-05-17 18:48:00,
2013-05-17 13:49:00,54.1,46.0,29.99,ENE,78,12.0,14.0,74,0.00,,,0.55,Wunderground v.1.15,2013-05-17 18:49:00,
2013-05-17 13:52:00,53.8,45.0,29.99,East,91,13.0,13.0,72,0.00,,,0.55,Wunderground v.1.15,2013-05-17 18:52:00,
2013-05-17 13:53:00,53.8,45.3,29.99,ENE,63,8.0,13.0,73,0.00,,,0.55,Wunderground v.1.15,2013-05-17 18:53:00,
2013-05-17 13:54:00,53.8,45.3,29.99,East,96,14.0,14.0,73,0.00,,,0.55,Wunderground v.1.15,2013-05-17 18:54:00,
2013-05-17 13:55:00,53.8,45.7,29.99,ENE,63,16.0,16.0,74,0.00,,,0.55,Wunderground v.1.15,2013-05-17 18:55:00,
2013-05-17 13:57:00,53.5,45.1,29.99,East,86,14.0,16.0,73,0.00,,,0.55,Wunderground v.1.15,2013-05-17 18:57:00,
2013-05-17 13:59:00,53.5,44.7,29.99,ENE,60,9.0,16.0,72,0.00,,,0.55,Wunderground v.1.15,2013-05-17 18:59:00,
2013-05-17 14:02:00,53.3,44.9,29.99,East,96,13.0,13.0,73,0.00,,,0.55,Wunderground v.1.15,2013-05-17 19:02:00,
2013-05-17 14:04:00,53.5,45.8,29.99,East,82,5.0,14.0,75,0.00,,,0.55,Wunderground v.1.15,2013-05-17 19:04:00,
2013-05-17 14:07:00,53.6,45.5,29.99,ENE,62,13.0,14.0,74,0.00,,,0.55,Wunderground v.1.15,2013-05-17 19:07:00,
2013-05-17 14:08:00,53.8,45.3,29.99,East,85,5.0,14.0,73,0.00,,,0.55,Wunderground v.1.15,2013-05-17 19:08:00,
2013-05-17 14:10:00,54.1,46.3,29.99,East,83,9.0,14.0,75,0.00,,,0.55,Wunderground v.1.15,2013-05-17 19:10:00,
2013-05-17 14:11:00,54.4,45.9,29.99,East,84,9.0,14.0,73,0.00,,,0.55,Wunderground v.1.15,2013-05-17 19:11:00,
2013-05-17 14:12:00,54.5,46.4,29.99,ENE,72,9.0,10.0,74,0.00,,,0.55,Wunderground v.1.15,2013-05-17 19:12:00,
2013-05-17 14:14:00,54.8,46.7,29.99,East,79,15.0,15.0,74,0.00,,,0.55,Wunderground v.1.15,2013-05-17 19:14:00,
2013-05-17 14:15:00,54.8,46.3,29.99,East,79,14.0,15.0,73,0.00,,,0.55,Wunderground v.1.15,2013-05-17 19:15:00,
2013-05-17 14:18:00,55.1,46.6,29.99,East,91,5.0,15.0,73,0.00,,,0.55,Wunderground v.1.15,2013-05-17 19:18:00,
2013-05-17 14:22:00,55.6,47.4,29.99,East,94,9.0,9.0,74,0.00,,,0.55,Wunderground v.1.15,2013-05-17 19:22:00,
2013-05-17 14:24:00,55.6,46.3,29.99,ENE,73,11.0,13.0,71,0.00,,,0.55,Wunderground v.1.15,2013-05-17 19:24:00,
2013-05-17 14:25:00,55.6,46.7,29.99,East,82,8.0,13.0,72,0.00,,,0.55,Wunderground v.1.15,2013-05-17 19:25:00,
2013-05-17 14:27:00,55.4,46.2,29.99,East,84,11.0,13.0,71,0.00,,,0.55,Wunderground v.1.15,2013-05-17 19:27:00,
2013-05-17 14:29:00,55.4,46.2,29.99,East,87,14.0,14.0,71,0.00,,,0.55,Wunderground v.1.15,2013-05-17 19:29:00,
2013-05-17 14:32:00,55.3,45.7,29.99,East,98,11.0,15.0,70,0.00,,,0.55,Wunderground v.1.15,2013-05-17 19:32:00,
2013-05-17 14:33:00,55.1,45.5,29.99,ESE,102,13.0,15.0,70,0.00,,,0.55,Wunderground v.1.15,2013-05-17 19:33:00,
2013-05-17 14:34:00,55.1,45.5,29.99,East,91,10.0,15.0,70,0.00,,,0.55,Wunderground v.1.15,2013-05-17 19:34:00,
2013-05-17 14:35:00,55.0,45.8,29.99,East,99,6.0,15.0,71,0.00,,,0.55,Wunderground v.1.15,2013-05-17 19:35:00,
2013-05-17 14:36:00,55.0,45.8,29.99,ENE,77,13.0,15.0,71,0.00,,,0.55,Wunderground v.1.15,2013-05-17 19:36:00,
2013-05-17 14:38:00,55.0,45.8,29.99,East,96,11.0,17.0,71,0.00,,,0.55,Wunderground v.1.15,2013-05-17 19:38:00,
2013-05-17 14:39:00,54.8,44.8,29.99,ESE,106,7.0,17.0,69,0.00,,,0.55,Wunderground v.1.15,2013-05-17 19:39:00,
2013-05-17 14:40:00,54.8,44.8,29.99,East,81,6.0,17.0,69,0.00,,,0.55,Wunderground v.1.15,2013-05-17 19:40:00,
2013-05-17 14:43:00,54.5,44.5,29.99,East,87,10.0,11.0,69,0.00,,,0.55,Wunderground v.1.15,2013-05-17 19:43:00,
2013-05-17 14:44:00,54.5,44.5,29.99,East,98,11.0,11.0,69,0.00,,,0.55,Wunderground v.1.15,2013-05-17 19:44:00,
2013-05-17 14:45:00,54.5,45.3,29.99,East,94,12.0,12.0,71,0.00,,,0.55,Wunderground v.1.15,2013-05-17 19:45:00,
2013-05-17 14:48:00,54.5,44.5,29.99,East,82,3.0,12.0,69,0.00,,,0.55,Wunderground v.1.15,2013-05-17 19:48:00,
2013-05-17 14:49:00,54.5,44.9,29.99,East,89,10.0,12.0,70,0.00,,,0.55,Wunderground v.1.15,2013-05-17 19:49:00,
2013-05-17 14:52:00,54.5,45.3,29.99,NE,52,10.0,10.0,71,0.00,,,0.55,Wunderground v.1.15,2013-05-17 19:52:00,
2013-05-17 14:53:00,54.5,45.3,29.99,East,94,6.0,10.0,71,0.00,,,0.55,Wunderground v.1.15,2013-05-17 19:53:00,
2013-05-17 14:54:00,54.5,45.3,29.99,ENE,75,5.0,10.0,71,0.00,,,0.55,Wunderground v.1.15,2013-05-17 19:54:00,
2013-05-17 14:57:00,54.8,45.6,29.98,East,97,10.0,12.0,71,0.00,,,0.55,Wunderground v.1.15,2013-05-17 19:57:00,
2013-05-17 14:58:00,54.8,45.2,29.98,East,84,5.0,12.0,70,0.00,,,0.55,Wunderground v.1.15,2013-05-17 19:58:00,
2013-05-17 14:59:00,54.8,45.2,29.98,East,99,9.0,14.0,70,0.00,,,0.55,Wunderground v.1.15,2013-05-17 19:59:00,
2013-05-17 15:00:00,54.8,45.2,29.98,ENE,69,10.0,14.0,70,0.00,,,0.55,Wunderground v.1.15,2013-05-17 20:00:00,
2013-05-17 15:01:00,55.0,45.4,29.98,ENE,60,10.0,14.0,70,0.00,,,0.55,Wunderground v.1.15,2013-05-17 20:01:00,
2013-05-17 15:03:00,55.0,45.0,29.98,ENE,68,11.0,15.0,69,0.00,,,0.55,Wunderground v.1.15,2013-05-17 20:03:00,
2013-05-17 15:05:00,55.1,45.1,29.98,East,80,9.0,15.0,69,0.00,,,0.55,Wunderground v.1.15,2013-05-17 20:05:00,
2013-05-17 15:07:00,55.3,45.7,29.98,ENE,75,10.0,15.0,70,0.00,,,0.55,Wunderground v.1.15,2013-05-17 20:07:00,
2013-05-17 15:08:00,55.3,45.3,29.98,East,82,7.0,15.0,69,0.00,,,0.55,Wunderground v.1.15,2013-05-17 20:08:00,
2013-05-17 15:12:00,55.7,46.1,29.98,East,83,5.0,7.0,70,0.00,,,0.55,Wunderground v.1.15,2013-05-17 20:12:00,
2013-05-17 15:13:00,55.7,45.7,29.98,East,86,15.0,15.0,69,0.00,,,0.55,Wunderground v.1.15,2013-05-17 20:13:00,
2013-05-17 15:14:00,55.9,46.3,29.98,ENE,68,4.0,15.0,70,0.00,,,0.55,Wunderground v.1.15,2013-05-17 20:14:00,
2013-05-17 15:18:00,56.2,46.2,29.98,East,82,12.0,15.0,69,0.00,,,0.55,Wunderground v.1.15,2013-05-17 20:18:00,
2013-05-17 15:19:00,56.3,46.6,29.98,NE,56,4.0,15.0,70,0.00,,,0.55,Wunderground v.1.15,2013-05-17 20:19:00,
2013-05-17 15:22:00,56.5,45.7,29.98,ENE,77,9.0,9.0,67,0.00,,,0.55,Wunderground v.1.15,2013-05-17 20:22:00,
2013-05-17 15:24:00,56.5,45.3,29.98,ENE,65,6.0,12.0,66,0.00,,,0.55,Wunderground v.1.15,2013-05-17 20:24:00,
2013-05-17 15:25:00,56.5,45.7,29.98,ENE,75,11.0,12.0,67,0.00,,,0.55,Wunderground v.1.15,2013-05-17 20:25:00,
2013-05-17 15:26:00,56.6,46.2,29.98,ENE,60,12.0,14.0,68,0.00,,,0.55,Wunderground v.1.15,2013-05-17 20:26:00,
2013-05-17 15:28:00,56.6,45.8,29.98,ESE,107,7.0,14.0,67,0.00,,,0.55,Wunderground v.1.15,2013-05-17 20:28:00,
2013-05-17 15:30:00,56.7,45.9,29.98,East,89,6.0,14.0,67,0.00,,,0.55,Wunderground v.1.15,2013-05-17 20:30:00,
2013-05-17 15:33:00,57.0,45.7,29.98,East,98,7.0,9.0,66,0.00,,,0.55,Wunderground v.1.15,2013-05-17 20:33:00,
2013-05-17 15:34:00,57.3,46.0,29.98,ENE,77,16.0,16.0,66,0.00,,,0.55,Wunderground v.1.15,2013-05-17 20:34:00,
2013-05-17 15:37:00,57.5,45.8,29.98,East,81,11.0,16.0,65,0.00,,,0.55,Wunderground v.1.15,2013-05-17 20:37:00,
2013-05-17 15:38:00,57.6,46.7,29.98,ESE,111,13.0,16.0,67,0.00,,,0.55,Wunderground v.1.15,2013-05-17 20:38:00,
2013-05-17 15:39:00,57.8,46.5,29.98,ENE,59,10.0,16.0,66,0.00,,,0.55,Wunderground v.1.15,2013-05-17 20:39:00,
2013-05-17 15:42:00,58.1,46.4,29.96,East,91,11.0,13.0,65,0.00,,,0.55,Wunderground v.1.15,2013-05-17 20:42:00,
2013-05-17 15:43:00,58.1,46.0,29.96,East,96,12.0,13.0,64,0.00,,,0.55,Wunderground v.1.15,2013-05-17 20:43:00,
2013-05-17 15:44:00,58.3,46.2,29.96,ENE,68,6.0,13.0,64,0.00,,,0.55,Wunderground v.1.15,2013-05-17 20:44:00,
2013-05-17 15:48:00,58.6,46.9,29.96,ENE,77,5.0,14.0,65,0.00,,,0.55,Wunderground v.1.15,2013-05-17 20:48:00,
2013-05-17 15:49:00,58.6,46.9,29.96,ESE,108,7.0,14.0,65,0.00,,,0.55,Wunderground v.1.15,2013-05-17 20:49:00,
2013-05-17 15:53:00,58.9,47.2,29.96,East,87,13.0,13.0,65,0.00,,,0.55,Wunderground v.1.15,2013-05-17 20:53:00,
2013-05-17 15:54:00,59.0,46.4,29.96,ENE,78,10.0,13.0,63,0.00,,,0.55,Wunderground v.1.15,2013-05-17 20:54:00,
2013-05-17 15:57:00,59.3,47.5,29.97,East,99,9.0,13.0,65,0.00,,,0.55,Wunderground v.1.15,2013-05-17 20:57:00,
2013-05-17 16:00:00,59.3,46.7,29.97,ENE,78,10.0,13.0,63,0.00,,,0.55,Wunderground v.1.15,2013-05-17 21:00:00,
2013-05-17 16:01:00,59.3,46.7,29.97,East,89,5.0,14.0,63,0.00,,,0.55,Wunderground v.1.15,2013-05-17 21:01:00,
2013-05-17 16:02:00,59.2,46.2,29.97,East,79,14.0,15.0,62,0.00,,,0.55,Wunderground v.1.15,2013-05-17 21:02:00,
2013-05-17 16:03:00,59.0,46.0,29.97,ENE,68,16.0,16.0,62,0.00,,,0.55,Wunderground v.1.15,2013-05-17 21:03:00,
2013-05-17 16:05:00,58.7,45.7,29.97,ENE,63,11.0,16.0,62,0.00,,,0.55,Wunderground v.1.15,2013-05-17 21:05:00,
2013-05-17 16:07:00,58.3,45.8,29.97,ENE,64,10.0,16.0,63,0.00,,,0.55,Wunderground v.1.15,2013-05-17 21:07:00,
2013-05-17 16:08:00,58.1,45.1,29.97,ENE,74,9.0,16.0,62,0.00,,,0.55,Wunderground v.1.15,2013-05-17 21:08:00,
2013-05-17 16:09:00,58.1,45.6,29.97,East,83,5.0,16.0,63,0.00,,,0.55,Wunderground v.1.15,2013-05-17 21:09:00,
2013-05-17 16:12:00,58.3,46.2,29.96,ENE,71,7.0,9.0,64,0.00,,,0.55,Wunderground v.1.15,2013-05-17 21:12:00,
2013-05-17 16:13:00,58.3,46.2,29.96,East,95,6.0,9.0,64,0.00,,,0.55,Wunderground v.1.15,2013-05-17 21:13:00,
2013-05-17 16:14:00,58.3,46.6,29.96,East,94,11.0,15.0,65,0.00,,,0.55,Wunderground v.1.15,2013-05-17 21:14:00,
2013-05-17 16:15:00,58.4,46.3,29.96,East,95,9.0,15.0,64,0.00,,,0.55,Wunderground v.1.15,2013-05-17 21:15:00,
2013-05-17 16:19:00,58.6,46.0,29.96,East,89,12.0,15.0,63,0.00,,,0.55,Wunderground v.1.15,2013-05-17 21:19:00,
2013-05-17 16:22:00,58.6,45.6,29.96,East,81,7.0,11.0,62,0.00,,,0.55,Wunderground v.1.15,2013-05-17 21:22:00,
2013-05-17 16:23:00,58.6,45.6,29.96,East,87,10.0,11.0,62,0.00,,,0.55,Wunderground v.1.15,2013-05-17 21:23:00,
2013-05-17 16:24:00,58.6,46.0,29.96,East,91,7.0,11.0,63,0.00,,,0.55,Wunderground v.1.15,2013-05-17 21:24:00,
2013-05-17 16:27:00,58.6,45.6,29.96,East,86,12.0,12.0,62,0.00,,,0.55,Wunderground v.1.15,2013-05-17 21:27:00,
2013-05-17 16:28:00,58.7,45.7,29.96,SE,128,12.0,13.0,62,0.00,,,0.55,Wunderground v.1.15,2013-05-17 21:28:00,
2013-05-17 16:30:00,58.9,45.9,29.96,East,94,12.0,14.0,62,0.00,,,0.55,Wunderground v.1.15,2013-05-17 21:30:00,
2013-05-17 16:33:00,59.3,46.7,29.96,ENE,77,13.0,13.0,63,0.00,,,0.55,Wunderground v.1.15,2013-05-17 21:33:00,
2013-05-17 16:34:00,59.5,46.9,29.96,East,90,3.0,13.0,63,0.00,,,0.55,Wunderground v.1.15,2013-05-17 21:34:00,
2013-05-17 16:35:00,59.6,46.6,29.96,ENE,72,9.0,13.0,62,0.00,,,0.55,Wunderground v.1.15,2013-05-17 21:35:00,
2013-05-17 16:37:00,59.6,46.6,29.96,East,86,6.0,13.0,62,0.00,,,0.55,Wunderground v.1.15,2013-05-17 21:37:00,
2013-05-17 16:38:00,59.6,46.1,29.96,East,86,5.0,13.0,61,0.00,,,0.55,Wunderground v.1.15,2013-05-17 21:38:00,
2013-05-17 16:39:00,59.6,46.1,29.96,East,79,9.0,13.0,61,0.00,,,0.55,Wunderground v.1.15,2013-05-17 21:39:00,
2013-05-17 16:41:00,59.5,45.6,29.96,East,81,7.0,13.0,60,0.00,,,0.55,Wunderground v.1.15,2013-05-17 21:41:00,
2013-05-17 16:42:00,59.5,46.0,29.96,East,91,8.0,13.0,61,0.00,,,0.55,Wunderground v.1.15,2013-05-17 21:42:00,
2013-05-17 16:43:00,59.5,46.0,29.96,East,90,12.0,13.0,61,0.00,,,0.55,Wunderground v.1.15,2013-05-17 21:43:00,
2013-05-17 16:44:00,59.3,45.4,29.96,NE,54,8.0,14.0,60,0.00,,,0.55,Wunderground v.1.15,2013-05-17 21:44:00,
2013-05-17 16:45:00,59.3,45.4,29.96,East,86,11.0,14.0,60,0.00,,,0.55,Wunderground v.1.15,2013-05-17 21:45:00,
2013-05-17 16:48:00,58.9,45.0,29.96,East,93,16.0,16.0,60,0.00,,,0.55,Wunderground v.1.15,2013-05-17 21:48:00,
2013-05-17 16:49:00,58.7,44.8,29.96,East,100,15.0,16.0,60,0.00,,,0.55,Wunderground v.1.15,2013-05-17 21:49:00,
2013-05-17 16:52:00,58.6,45.2,29.96,East,86,15.0,15.0,61,0.00,,,0.55,Wunderground v.1.15,2013-05-17 21:52:00,
2013-05-17 16:53:00,58.6,45.6,29.96,ENE,76,6.0,15.0,62,0.00,,,0.55,Wunderground v.1.15,2013-05-17 21:53:00,
2013-05-17 16:54:00,58.6,45.6,29.96,East,101,8.0,15.0,62,0.00,,,0.55,Wunderground v.1.15,2013-05-17 21:54:00,
2013-05-17 16:55:00,58.6,45.6,29.96,ESE,122,12.0,15.0,62,0.00,,,0.55,Wunderground v.1.15,2013-05-17 21:55:00,
2013-05-17 16:57:00,58.7,45.7,29.96,East,97,12.0,15.0,62,0.00,,,0.55,Wunderground v.1.15,2013-05-17 21:57:00,
2013-05-17 16:59:00,58.7,45.3,29.96,ENE,77,10.0,15.0,61,0.00,,,0.55,Wunderground v.1.15,2013-05-17 21:59:00,
2013-05-17 17:03:00,58.6,45.2,29.96,ESE,102,12.0,12.0,61,0.00,,,0.55,Wunderground v.1.15,2013-05-17 22:03:00,
2013-05-17 17:04:00,58.6,45.2,29.96,ENE,71,12.0,12.0,61,0.00,,,0.55,Wunderground v.1.15,2013-05-17 22:04:00,
2013-05-17 17:05:00,58.6,45.2,29.96,ESE,107,13.0,13.0,61,0.00,,,0.55,Wunderground v.1.15,2013-05-17 22:05:00,
2013-05-17 17:08:00,58.6,45.6,29.96,ESE,117,7.0,13.0,62,0.00,,,0.55,Wunderground v.1.15,2013-05-17 22:08:00,
2013-05-17 17:10:00,58.6,45.6,29.96,East,96,13.0,13.0,62,0.00,,,0.55,Wunderground v.1.15,2013-05-17 22:10:00,
2013-05-17 17:13:00,58.4,45.0,29.96,East,89,4.0,12.0,61,0.00,,,0.55,Wunderground v.1.15,2013-05-17 22:13:00,
2013-05-17 17:14:00,58.4,45.0,29.96,ESE,114,10.0,12.0,61,0.00,,,0.55,Wunderground v.1.15,2013-05-17 22:14:00,
2013-05-17 17:17:00,58.4,45.0,29.96,East,91,12.0,12.0,61,0.00,,,0.55,Wunderground v.1.15,2013-05-17 22:17:00,
2013-05-17 17:18:00,58.4,45.4,29.96,ESE,122,14.0,14.0,62,0.00,,,0.55,Wunderground v.1.15,2013-05-17 22:18:00,
2013-05-17 17:21:00,58.6,45.6,29.96,East,79,6.0,14.0,62,0.00,,,0.55,Wunderground v.1.15,2013-05-17 22:21:00,
2013-05-17 17:22:00,58.6,46.0,29.96,East,89,6.0,14.0,63,0.00,,,0.55,Wunderground v.1.15,2013-05-17 22:22:00,
2013-05-17 17:23:00,58.6,45.6,29.96,East,84,10.0,14.0,62,0.00,,,0.55,Wunderground v.1.15,2013-05-17 22:23:00,
2013-05-17 17:24:00,58.6,45.6,29.96,East,85,9.0,14.0,62,0.00,,,0.55,Wunderground v.1.15,2013-05-17 22:24:00,
2013-05-17 17:27:00,58.7,45.3,29.97,East,99,3.0,14.0,61,0.00,,,0.55,Wunderground v.1.15,2013-05-17 22:27:00,
2013-05-17 17:29:00,58.7,45.7,29.97,East,84,9.0,14.0,62,0.00,,,0.55,Wunderground v.1.15,2013-05-17 22:29:00,
2013-05-17 17:33:00,58.9,45.9,29.97,East,100,6.0,10.0,62,0.00,,,0.55,Wunderground v.1.15,2013-05-17 22:33:00,
2013-05-17 17:34:00,58.9,45.5,29.97,East,79,6.0,10.0,61,0.00,,,0.55,Wunderground v.1.15,2013-05-17 22:34:00,
2013-05-17 17:37:00,58.9,45.0,29.97,ESE,113,9.0,13.0,60,0.00,,,0.55,Wunderground v.1.15,2013-05-17 22:37:00,
2013-05-17 17:39:00,58.7,44.4,29.97,East,84,13.0,16.0,59,0.00,,,0.55,Wunderground v.1.15,2013-05-17 22:39:00,
2013-05-17 17:40:00,58.7,44.4,29.96,East,97,13.0,16.0,59,0.00,,,0.55,Wunderground v.1.15,2013-05-17 22:40:00,
2013-05-17 17:42:00,58.7,44.8,29.96,East,101,11.0,11.0,60,0.00,,,0.55,Wunderground v.1.15,2013-05-17 22:42:00,
2013-05-17 17:43:00,58.7,44.4,29.96,ENE,78,12.0,14.0,59,0.00,,,0.55,Wunderground v.1.15,2013-05-17 22:43:00,
2013-05-17 17:44:00,58.6,44.3,29.96,East,87,11.0,14.0,59,0.00,,,0.55,Wunderground v.1.15,2013-05-17 22:44:00,
2013-05-17 17:47:00,58.6,44.8,29.96,SE,129,14.0,14.0,60,0.00,,,0.55,Wunderground v.1.15,2013-05-17 22:47:00,
2013-05-17 17:48:00,58.6,44.8,29.96,East,86,10.0,14.0,60,0.00,,,0.55,Wunderground v.1.15,2013-05-17 22:48:00,
2013-05-17 17:49:00,58.6,44.3,29.96,ESE,117,7.0,14.0,59,0.00,,,0.55,Wunderground v.1.15,2013-05-17 22:49:00,
2013-05-17 17:50:00,58.6,44.3,29.96,East,99,9.0,14.0,59,0.00,,,0.55,Wunderground v.1.15,2013-05-17 22:50:00,
2013-05-17 17:52:00,58.6,44.8,29.96,East,97,11.0,11.0,60,0.00,,,0.55,Wunderground v.1.15,2013-05-17 22:52:00,
2013-05-17 17:54:00,58.6,43.9,29.96,East,86,5.0,12.0,58,0.00,,,0.55,Wunderground v.1.15,2013-05-17 22:54:00,
2013-05-17 17:57:00,58.4,44.1,29.96,ESE,113,7.0,13.0,59,0.00,,,0.55,Wunderground v.1.15,2013-05-17 22:57:00,
2013-05-17 17:58:00,58.4,44.6,29.96,East,91,6.0,13.0,60,0.00,,,0.55,Wunderground v.1.15,2013-05-17 22:58:00,
2013-05-17 17:59:00,58.4,44.1,29.96,East,98,9.0,13.0,59,0.00,,,0.55,Wunderground v.1.15,2013-05-17 22:59:00,
2013-05-17 18:03:00,58.4,44.6,29.96,East,98,6.0,11.0,60,0.00,,,0.55,Wunderground v.1.15,2013-05-17 23:03:00,
2013-05-17 18:04:00,58.4,44.6,29.96,ESE,109,9.0,11.0,60,0.00,,,0.55,Wunderground v.1.15,2013-05-17 23:04:00,
2013-05-17 18:07:00,58.4,44.6,29.96,East,92,10.0,11.0,60,0.00,,,0.55,Wunderground v.1.15,2013-05-17 23:07:00,
2013-05-17 18:08:00,58.4,44.6,29.96,East,97,8.0,11.0,60,0.00,,,0.55,Wunderground v.1.15,2013-05-17 23:08:00,
2013-05-17 18:10:00,58.4,44.6,29.96,East,84,5.0,11.0,60,0.00,,,0.55,Wunderground v.1.15,2013-05-17 23:10:00,
2013-05-17 18:12:00,58.3,44.5,29.96,East,100,7.0,7.0,60,0.00,,,0.55,Wunderground v.1.15,2013-05-17 23:12:00,
2013-05-17 18:13:00,58.3,44.5,29.96,ESE,117,9.0,9.0,60,0.00,,,0.55,Wunderground v.1.15,2013-05-17 23:13:00,
2013-05-17 18:17:00,58.4,45.0,29.96,East,98,7.0,9.0,61,0.00,,,0.55,Wunderground v.1.15,2013-05-17 23:17:00,
2013-05-17 18:18:00,58.4,44.6,29.96,ESE,113,6.0,10.0,60,0.00,,,0.55,Wunderground v.1.15,2013-05-17 23:18:00,
2013-05-17 18:20:00,58.4,44.6,29.96,East,92,7.0,12.0,60,0.00,,,0.55,Wunderground v.1.15,2013-05-17 23:20:00,
2013-05-17 18:23:00,58.4,44.6,29.96,ENE,78,6.0,12.0,60,0.00,,,0.55,Wunderground v.1.15,2013-05-17 23:23:00,
2013-05-17 18:27:00,58.4,44.6,29.95,East,82,6.0,13.0,60,0.00,,,0.55,Wunderground v.1.15,2013-05-17 23:27:00,
2013-05-17 18:28:00,58.4,44.6,29.95,East,86,7.0,13.0,60,0.00,,,0.55,Wunderground v.1.15,2013-05-17 23:28:00,
2013-05-17 18:29:00,58.6,44.8,29.95,East,91,5.0,13.0,60,0.00,,,0.55,Wunderground v.1.15,2013-05-17 23:29:00,
2013-05-17 18:33:00,58.4,44.6,29.95,East,91,4.0,7.0,60,0.00,,,0.55,Wunderground v.1.15,2013-05-17 23:33:00,
2013-05-17 18:34:00,58.6,44.8,29.95,East,91,2.0,7.0,60,0.00,,,0.55,Wunderground v.1.15,2013-05-17 23:34:00,
2013-05-17 18:35:00,58.6,45.6,29.95,ESE,107,5.0,7.0,62,0.00,,,0.55,Wunderground v.1.15,2013-05-17 23:35:00,
2013-05-17 18:38:00,58.4,44.6,29.95,ESE,110,6.0,10.0,60,0.00,,,0.55,Wunderground v.1.15,2013-05-17 23:38:00,
2013-05-17 18:39:00,58.4,44.6,29.95,East,91,9.0,10.0,60,0.00,,,0.55,Wunderground v.1.15,2013-05-17 23:39:00,
2013-05-17 18:40:00,58.4,44.6,29.95,East,93,6.0,10.0,60,0.00,,,0.55,Wunderground v.1.15,2013-05-17 23:40:00,
2013-05-17 18:43:00,58.4,44.6,29.95,East,97,7.0,7.0,60,0.00,,,0.55,Wunderground v.1.15,2013-05-17 23:43:00,
2013-05-17 18:44:00,58.3,44.0,29.95,ESE,103,7.0,8.0,59,0.00,,,0.55,Wunderground v.1.15,2013-05-17 23:44:00,
2013-05-17 18:45:00,58.3,44.5,29.95,ESE,103,11.0,11.0,60,0.00,,,0.55,Wunderground v.1.15,2013-05-17 23:45:00,
2013-05-17 18:48:00,58.3,43.6,29.95,ESE,122,7.0,12.0,58,0.00,,,0.55,Wunderground v.1.15,2013-05-17 23:48:00,
2013-05-17 18:50:00,58.3,43.6,29.95,ESE,108,10.0,12.0,58,0.00,,,0.55,Wunderground v.1.15,2013-05-17 23:50:00,
2013-05-17 18:53:00,58.3,43.6,29.95,East,82,5.0,7.0,58,0.00,,,0.55,Wunderground v.1.15,2013-05-17 23:53:00,
2013-05-17 18:54:00,58.3,43.6,29.95,East,93,4.0,9.0,58,0.00,,,0.55,Wunderground v.1.15,2013-05-17 23:54:00,
2013-05-17 18:57:00,58.3,43.6,29.96,ESE,112,7.0,10.0,58,0.00,,,0.55,Wunderground v.1.15,2013-05-17 23:57:00,
2013-05-17 18:58:00,58.3,43.1,29.96,East,82,7.0,12.0,57,0.00,,,0.55,Wunderground v.1.15,2013-05-17 23:58:00,
2013-05-17 19:00:00,58.1,42.9,29.96,East,96,7.0,12.0,57,0.00,,,0.55,Wunderground v.1.15,2013-05-18 00:00:00,
2013-05-17 19:01:00,58.1,42.9,29.96,ESE,107,5.0,12.0,57,0.00,,,0.55,Wunderground v.1.15,2013-05-18 00:01:00,
2013-05-17 19:03:00,58.1,42.9,29.96,ESE,113,6.0,7.0,57,0.00,,,0.55,Wunderground v.1.15,2013-05-18 00:03:00,
2013-05-17 19:04:00,58.1,43.4,29.96,ESE,112,11.0,11.0,58,0.00,,,0.55,Wunderground v.1.15,2013-05-18 00:04:00,
2013-05-17 19:07:00,58.0,43.3,29.96,ESE,121,4.0,13.0,58,0.00,,,0.55,Wunderground v.1.15,2013-05-18 00:07:00,
2013-05-17 19:09:00,58.0,43.3,29.96,East,101,7.0,13.0,58,0.00,,,0.55,Wunderground v.1.15,2013-05-18 00:09:00,
2013-05-17 19:13:00,57.8,43.1,29.96,ENE,77,5.0,7.0,58,0.00,,,0.55,Wunderground v.1.15,2013-05-18 00:13:00,
2013-05-17 19:14:00,57.8,43.1,29.96,ESE,103,5.0,7.0,58,0.00,,,0.55,Wunderground v.1.15,2013-05-18 00:14:00,
2013-05-17 19:17:00,57.8,43.1,29.96,ESE,115,5.0,7.0,58,0.00,,,0.55,Wunderground v.1.15,2013-05-18 00:17:00,
2013-05-17 19:20:00,57.8,43.1,29.96,East,91,6.0,7.0,58,0.00,,,0.55,Wunderground v.1.15,2013-05-18 00:20:00,
2013-05-17 19:21:00,57.8,43.6,29.96,East,86,4.0,11.0,59,0.00,,,0.55,Wunderground v.1.15,2013-05-18 00:21:00,
2013-05-17 19:23:00,57.6,42.9,29.96,East,86,6.0,7.0,58,0.00,,,0.55,Wunderground v.1.15,2013-05-18 00:23:00,
2013-05-17 19:25:00,57.6,43.4,29.96,East,86,6.0,9.0,59,0.00,,,0.55,Wunderground v.1.15,2013-05-18 00:25:00,
2013-05-17 19:27:00,57.6,42.9,29.97,ENE,70,4.0,9.0,58,0.00,,,0.55,Wunderground v.1.15,2013-05-18 00:27:00,
2013-05-17 19:28:00,57.6,43.4,29.97,East,94,5.0,9.0,59,0.00,,,0.55,Wunderground v.1.15,2013-05-18 00:28:00,
2013-05-17 19:30:00,57.6,43.4,29.97,East,100,5.0,11.0,59,0.00,,,0.55,Wunderground v.1.15,2013-05-18 00:30:00,
2013-05-17 19:32:00,57.6,43.4,29.97,ESE,112,6.0,6.0,59,0.00,,,0.55,Wunderground v.1.15,2013-05-18 00:32:00,
2013-05-17 19:33:00,57.6,43.4,29.97,ESE,117,4.0,10.0,59,0.00,,,0.55,Wunderground v.1.15,2013-05-18 00:33:00,
2013-05-17 19:34:00,57.6,43.4,29.97,East,95,4.0,10.0,59,0.00,,,0.55,Wunderground v.1.15,2013-05-18 00:34:00,
2013-05-17 19:38:00,57.6,43.4,29.97,ESE,117,9.0,10.0,59,0.00,,,0.55,Wunderground v.1.15,2013-05-18 00:38:00,
2013-05-17 19:39:00,57.6,42.9,29.97,ESE,122,4.0,10.0,58,0.00,,,0.55,Wunderground v.1.15,2013-05-18 00:39:00,
2013-05-17 19:41:00,57.6,42.9,29.97,ESE,117,5.0,10.0,58,0.00,,,0.55,Wunderground v.1.15,2013-05-18 00:41:00,
2013-05-17 19:43:00,57.6,42.9,29.97,East,98,4.0,5.0,58,0.00,,,0.55,Wunderground v.1.15,2013-05-18 00:43:00,
2013-05-17 19:44:00,57.6,43.4,29.97,ESE,107,2.0,5.0,59,0.00,,,0.55,Wunderground v.1.15,2013-05-18 00:44:00,
2013-05-17 19:47:00,57.6,43.4,29.97,East,98,6.0,6.0,59,0.00,,,0.55,Wunderground v.1.15,2013-05-18 00:47:00,
2013-05-17 19:48:00,57.6,43.4,29.97,ESE,107,4.0,6.0,59,0.00,,,0.55,Wunderground v.1.15,2013-05-18 00:48:00,
2013-05-17 19:49:00,57.6,42.9,29.97,East,82,5.0,6.0,58,0.00,,,0.55,Wunderground v.1.15,2013-05-18 00:49:00,
2013-05-17 19:53:00,57.5,43.3,29.97,ESE,113,6.0,7.0,59,0.00,,,0.55,Wunderground v.1.15,2013-05-18 00:53:00,
2013-05-17 19:54:00,57.5,43.3,29.97,East,89,6.0,7.0,59,0.00,,,0.55,Wunderground v.1.15,2013-05-18 00:54:00,
2013-05-17 19:55:00,57.5,43.3,29.97,ESE,108,8.0,8.0,59,0.00,,,0.55,Wunderground v.1.15,2013-05-18 00:55:00,
2013-05-17 19:56:00,57.5,43.3,29.97,East,89,4.0,8.0,59,0.00,,,0.55,Wunderground v.1.15,2013-05-18 00:56:00,
2013-05-17 19:59:00,57.5,43.3,29.97,East,96,4.0,9.0,59,0.00,,,0.55,Wunderground v.1.15,2013-05-18 00:59:00,
2013-05-17 20:02:00,57.5,43.3,29.97,ESE,115,6.0,6.0,59,0.00,,,0.55,Wunderground v.1.15,2013-05-18 01:02:00,
2013-05-17 20:03:00,57.5,42.8,29.97,East,92,7.0,7.0,58,0.00,,,0.55,Wunderground v.1.15,2013-05-18 01:03:00,
2013-05-17 20:04:00,57.5,43.3,29.97,East,101,3.0,7.0,59,0.00,,,0.55,Wunderground v.1.15,2013-05-18 01:04:00,
2013-05-17 20:07:00,57.3,43.1,29.97,East,101,5.0,7.0,59,0.00,,,0.55,Wunderground v.1.15,2013-05-18 01:07:00,
2013-05-17 20:08:00,57.3,42.6,29.97,ESE,106,7.0,7.0,58,0.00,,,0.55,Wunderground v.1.15,2013-05-18 01:08:00,
2013-05-17 20:09:00,57.3,42.6,29.97,East,100,3.0,7.0,58,0.00,,,0.55,Wunderground v.1.15,2013-05-18 01:09:00,
2013-05-17 20:10:00,57.3,42.6,29.97,SE,132,9.0,9.0,58,0.00,,,0.55,Wunderground v.1.15,2013-05-18 01:10:00,
2013-05-17 20:13:00,57.5,42.8,29.97,ESE,107,3.0,6.0,58,0.00,,,0.55,Wunderground v.1.15,2013-05-18 01:13:00,
2013-05-17 20:14:00,57.5,43.3,29.97,East,92,4.0,6.0,59,0.00,,,0.55,Wunderground v.1.15,2013-05-18 01:14:00,
2013-05-17 20:15:00,57.3,42.6,29.97,ESE,103,5.0,6.0,58,0.00,,,0.55,Wunderground v.1.15,2013-05-18 01:15:00,
2013-05-17 20:17:00,57.3,42.6,29.97,East,98,2.0,6.0,58,0.00,,,0.55,Wunderground v.1.15,2013-05-18 01:17:00,
2013-05-17 20:19:00,57.3,43.1,29.97,East,101,5.0,6.0,59,0.00,,,0.55,Wunderground v.1.15,2013-05-18 01:19:00,
2013-05-17 20:20:00,57.3,43.5,29.97,East,89,4.0,6.0,60,0.00,,,0.55,Wunderground v.1.15,2013-05-18 01:20:00,
2013-05-17 20:23:00,57.3,43.5,29.97,East,93,5.0,5.0,60,0.00,,,0.55,Wunderground v.1.15,2013-05-18 01:23:00,
2013-05-17 20:25:00,57.2,43.4,29.97,East,84,4.0,6.0,60,0.00,,,0.55,Wunderground v.1.15,2013-05-18 01:25:00,
2013-05-17 20:27:00,57.2,43.9,29.97,East,83,3.0,6.0,61,0.00,,,0.55,Wunderground v.1.15,2013-05-18 01:27:00,
2013-05-17 20:29:00,57.2,43.4,29.97,ENE,77,4.0,6.0,60,0.00,,,0.55,Wunderground v.1.15,2013-05-18 01:29:00,
2013-05-17 20:30:00,57.2,43.4,29.97,ESE,103,5.0,6.0,60,0.00,,,0.55,Wunderground v.1.15,2013-05-18 01:30:00,
2013-05-17 20:33:00,57.0,43.2,29.97,East,101,6.0,6.0,60,0.00,,,0.55,Wunderground v.1.15,2013-05-18 01:33:00,
2013-05-17 20:34:00,57.0,43.2,29.97,East,101,4.0,6.0,60,0.00,,,0.55,Wunderground v.1.15,2013-05-18 01:34:00,
2013-05-17 20:35:00,57.0,43.2,29.97,ESE,114,6.0,6.0,60,0.00,,,0.55,Wunderground v.1.15,2013-05-18 01:35:00,
2013-05-17 20:37:00,57.2,43.0,29.97,East,96,5.0,6.0,59,0.00,,,0.55,Wunderground v.1.15,2013-05-18 01:37:00,
2013-05-17 20:38:00,57.2,43.4,29.97,East,96,5.0,6.0,60,0.00,,,0.55,Wunderground v.1.15,2013-05-18 01:38:00,
2013-05-17 20:39:00,57.2,43.4,29.97,ESE,103,9.0,9.0,60,0.00,,,0.55,Wunderground v.1.15,2013-05-18 01:39:00,
2013-05-17 20:42:00,57.2,43.4,29.96,East,82,5.0,6.0,60,0.00,,,0.55,Wunderground v.1.15,2013-05-18 01:42:00,
2013-05-17 20:43:00,57.2,43.4,29.96,East,93,4.0,6.0,60,0.00,,,0.55,Wunderground v.1.15,2013-05-18 01:43:00,
2013-05-17 20:44:00,57.2,43.4,29.96,ESE,114,7.0,10.0,60,0.00,,,0.55,Wunderground v.1.15,2013-05-18 01:44:00,
2013-05-17 20:48:00,57.0,43.2,29.96,ESE,106,7.0,10.0,60,0.00,,,0.55,Wunderground v.1.15,2013-05-18 01:48:00,
2013-05-17 20:49:00,57.0,43.2,29.96,East,79,4.0,10.0,60,0.00,,,0.55,Wunderground v.1.15,2013-05-18 01:49:00,
2013-05-17 20:50:00,57.0,43.2,29.96,East,98,9.0,10.0,60,0.00,,,0.55,Wunderground v.1.15,2013-05-18 01:50:00,
2013-05-17 20:52:00,57.0,43.7,29.96,ESE,109,9.0,10.0,61,0.00,,,0.55,Wunderground v.1.15,2013-05-18 01:52:00,
2013-05-17 20:53:00,57.0,43.7,29.96,East,92,4.0,7.0,61,0.00,,,0.55,Wunderground v.1.15,2013-05-18 01:53:00,
2013-05-17 20:54:00,56.9,43.6,29.96,ENE,74,4.0,10.0,61,0.00,,,0.55,Wunderground v.1.15,2013-05-18 01:54:00,
2013-05-17 20:55:00,56.9,43.6,29.98,East,79,3.0,10.0,61,0.00,,,0.55,Wunderground v.1.15,2013-05-18 01:55:00,
2013-05-17 20:58:00,56.7,43.4,29.98,East,86,7.0,10.0,61,0.00,,,0.55,Wunderground v.1.15,2013-05-18 01:58:00,
2013-05-17 21:03:00,56.7,43.4,29.98,ESE,110,9.0,14.0,61,0.00,,,0.55,Wunderground v.1.15,2013-05-18 02:03:00,
2013-05-17 21:04:00,56.6,43.3,29.98,ESE,103,6.0,14.0,61,0.00,,,0.55,Wunderground v.1.15,2013-05-18 02:04:00,
2013-05-17 21:05:00,56.6,43.3,29.98,East,101,10.0,14.0,61,0.00,,,0.55,Wunderground v.1.15,2013-05-18 02:05:00,
2013-05-17 21:08:00,56.6,43.7,29.98,East,84,6.0,14.0,62,0.00,,,0.55,Wunderground v.1.15,2013-05-18 02:08:00,
2013-05-17 21:09:00,56.6,43.7,29.98,East,98,5.0,14.0,62,0.00,,,0.55,Wunderground v.1.15,2013-05-18 02:09:00,
2013-05-17 21:10:00,56.5,43.6,29.98,ENE,72,9.0,14.0,62,0.00,,,0.55,Wunderground v.1.15,2013-05-18 02:10:00,
2013-05-17 21:12:00,56.5,43.6,29.98,ENE,77,5.0,8.0,62,0.00,,,0.55,Wunderground v.1.15,2013-05-18 02:12:00,
2013-05-17 21:13:00,56.5,43.6,29.98,East,84,3.0,8.0,62,0.00,,,0.55,Wunderground v.1.15,2013-05-18 02:13:00,
2013-05-17 21:14:00,56.3,43.4,29.98,ESE,108,7.0,9.0,62,0.00,,,0.55,Wunderground v.1.15,2013-05-18 02:14:00,
2013-05-17 21:15:00,56.3,43.4,29.98,East,94,9.0,9.0,62,0.00,,,0.55,Wunderground v.1.15,2013-05-18 02:15:00,
2013-05-17 21:17:00,56.2,43.3,29.98,ESE,109,7.0,10.0,62,0.00,,,0.55,Wunderground v.1.15,2013-05-18 02:17:00,
2013-05-17 21:18:00,56.2,43.3,29.98,ESE,105,11.0,11.0,62,0.00,,,0.55,Wunderground v.1.15,2013-05-18 02:18:00,
2013-05-17 21:20:00,56.2,43.3,29.98,East,84,10.0,11.0,62,0.00,,,0.55,Wunderground v.1.15,2013-05-18 02:20:00,
2013-05-17 21:24:00,56.2,43.3,29.98,East,82,4.0,8.0,62,0.00,,,0.55,Wunderground v.1.15,2013-05-18 02:24:00,
2013-05-17 21:27:00,56.0,43.2,29.98,ENE,75,4.0,8.0,62,0.00,,,0.55,Wunderground v.1.15,2013-05-18 02:27:00,
2013-05-17 21:30:00,56.0,43.2,29.98,ENE,75,7.0,8.0,62,0.00,,,0.55,Wunderground v.1.15,2013-05-18 02:30:00,
2013-05-17 21:32:00,56.0,43.2,29.98,ESE,106,8.0,8.0,62,0.00,,,0.55,Wunderground v.1.15,2013-05-18 02:32:00,
2013-05-17 21:33:00,56.0,43.2,29.98,East,81,5.0,8.0,62,0.00,,,0.55,Wunderground v.1.15,2013-05-18 02:33:00,
2013-05-17 21:34:00,56.0,43.2,29.98,East,82,7.0,8.0,62,0.00,,,0.55,Wunderground v.1.15,2013-05-18 02:34:00,
2013-05-17 21:35:00,56.0,43.2,29.98,SE,124,9.0,9.0,62,0.00,,,0.55,Wunderground v.1.15,2013-05-18 02:35:00,
2013-05-17 21:37:00,56.0,43.6,29.98,NE,44,5.0,9.0,63,0.00,,,0.55,Wunderground v.1.15,2013-05-18 02:37:00,
2013-05-17 21:39:00,55.9,43.5,29.98,East,94,8.0,11.0,63,0.00,,,0.55,Wunderground v.1.15,2013-05-18 02:39:00,
2013-05-17 21:42:00,55.9,43.1,29.99,ESE,107,9.0,9.0,62,0.00,,,0.55,Wunderground v.1.15,2013-05-18 02:42:00,
2013-05-17 21:44:00,55.9,43.5,29.99,ESE,107,9.0,9.0,63,0.00,,,0.55,Wunderground v.1.15,2013-05-18 02:44:00,
2013-05-17 21:45:00,55.9,43.5,29.99,East,96,5.0,9.0,63,0.00,,,0.55,Wunderground v.1.15,2013-05-18 02:45:00,
2013-05-17 21:48:00,55.7,43.7,29.99,East,81,4.0,11.0,64,0.00,,,0.55,Wunderground v.1.15,2013-05-18 02:48:00,
2013-05-17 21:52:00,55.4,43.8,29.99,East,89,9.0,9.0,65,0.00,,,0.55,Wunderground v.1.15,2013-05-18 02:52:00,
2013-05-17 21:53:00,55.4,43.8,29.99,East,100,6.0,9.0,65,0.00,,,0.55,Wunderground v.1.15,2013-05-18 02:53:00,
2013-05-17 21:57:00,55.1,43.5,29.99,East,84,7.0,12.0,65,0.00,,,0.55,Wunderground v.1.15,2013-05-18 02:57:00,
2013-05-17 21:58:00,55.1,43.5,29.99,East,96,4.0,12.0,65,0.00,,,0.55,Wunderground v.1.15,2013-05-18 02:58:00,
2013-05-17 21:59:00,55.1,43.5,29.99,East,95,5.0,12.0,65,0.00,,,0.55,Wunderground v.1.15,2013-05-18 02:59:00,
2013-05-17 22:02:00,55.0,43.8,29.99,East,98,10.0,10.0,66,0.00,,,0.55,Wunderground v.1.15,2013-05-18 03:02:00,
2013-05-17 22:03:00,55.0,43.8,29.99,East,96,9.0,10.0,66,0.00,,,0.55,Wunderground v.1.15,2013-05-18 03:03:00,
2013-05-17 22:04:00,55.0,43.8,29.99,East,81,4.0,10.0,66,0.00,,,0.55,Wunderground v.1.15,2013-05-18 03:04:00,
2013-05-17 22:08:00,54.8,44.0,29.99,East,97,11.0,11.0,67,0.00,,,0.55,Wunderground v.1.15,2013-05-18 03:08:00,
2013-05-17 22:09:00,54.7,44.0,29.99,ESE,104,11.0,16.0,67,0.00,,,0.55,Wunderground v.1.15,2013-05-18 03:09:00,
2013-05-17 22:10:00,54.7,44.3,29.99,ENE,58,8.0,16.0,68,0.00,,,0.55,Wunderground v.1.15,2013-05-18 03:10:00,
2013-05-17 22:12:00,54.5,44.2,29.99,East,88,8.0,9.0,68,0.00,,,0.55,Wunderground v.1.15,2013-05-18 03:12:00,
2013-05-17 22:13:00,54.5,44.2,29.99,East,88,9.0,9.0,68,0.00,,,0.55,Wunderground v.1.15,2013-05-18 03:13:00,
2013-05-17 22:14:00,54.5,44.5,29.99,East,91,10.0,11.0,69,0.00,,,0.55,Wunderground v.1.15,2013-05-18 03:14:00,
2013-05-17 22:15:00,54.4,44.4,29.99,East,79,7.0,11.0,69,0.00,,,0.55,Wunderground v.1.15,2013-05-18 03:15:00,
2013-05-17 22:17:00,54.4,44.4,29.99,East,84,11.0,11.0,69,0.00,,,0.55,Wunderground v.1.15,2013-05-18 03:17:00,
2013-05-17 22:18:00,54.4,44.4,29.99,ENE,78,11.0,11.0,69,0.00,,,0.55,Wunderground v.1.15,2013-05-18 03:18:00,
2013-05-17 22:19:00,54.2,44.2,29.99,East,98,7.0,13.0,69,0.00,,,0.55,Wunderground v.1.15,2013-05-18 03:19:00,
2013-05-17 22:20:00,54.2,44.2,29.99,ESE,109,10.0,13.0,69,0.00,,,0.55,Wunderground v.1.15,2013-05-18 03:20:00,
2013-05-17 22:22:00,54.1,44.5,29.99,East,101,11.0,11.0,70,0.00,,,0.55,Wunderground v.1.15,2013-05-18 03:22:00,
2013-05-17 22:23:00,54.1,44.9,29.99,East,93,11.0,12.0,71,0.00,,,0.55,Wunderground v.1.15,2013-05-18 03:23:00,
2013-05-17 22:25:00,54.1,44.9,29.99,NE,39,7.0,12.0,71,0.00,,,0.55,Wunderground v.1.15,2013-05-18 03:25:00,
2013-05-17 22:26:00,53.9,44.7,29.98,ESE,107,9.0,14.0,71,0.00,,,0.55,Wunderground v.1.15,2013-05-18 03:26:00,
2013-05-17 22:27:00,53.9,44.7,29.98,East,98,7.0,15.0,71,0.00,,,0.55,Wunderground v.1.15,2013-05-18 03:27:00,
2013-05-17 22:28:00,53.9,44.7,29.98,ESE,114,13.0,15.0,71,0.00,,,0.55,Wunderground v.1.15,2013-05-18 03:28:00,
2013-05-17 22:33:00,53.9,44.7,29.98,East,90,12.0,13.0,71,0.00,,,0.55,Wunderground v.1.15,2013-05-18 03:33:00,
2013-05-17 22:34:00,53.9,44.7,29.98,ESE,106,14.0,14.0,71,0.00,,,0.55,Wunderground v.1.15,2013-05-18 03:34:00,
2013-05-17 22:38:00,53.8,44.6,29.98,ENE,75,12.0,14.0,71,0.00,,,0.55,Wunderground v.1.15,2013-05-18 03:38:00,
2013-05-17 22:43:00,53.8,45.0,29.98,East,79,13.0,15.0,72,0.00,,,0.55,Wunderground v.1.15,2013-05-18 03:43:00,
2013-05-17 22:44:00,53.8,45.0,29.98,East,92,13.0,15.0,72,0.00,,,0.55,Wunderground v.1.15,2013-05-18 03:44:00,
2013-05-17 22:49:00,53.8,45.0,29.98,East,96,5.0,15.0,72,0.00,,,0.55,Wunderground v.1.15,2013-05-18 03:49:00,
2013-05-17 22:50:00,53.8,44.6,29.98,East,96,11.0,15.0,71,0.00,,,0.55,Wunderground v.1.15,2013-05-18 03:50:00,
2013-05-17 22:51:00,53.8,44.6,29.98,East,97,7.0,15.0,71,0.00,,,0.55,Wunderground v.1.15,2013-05-18 03:51:00,
2013-05-17 22:55:00,53.8,44.6,29.98,East,94,10.0,17.0,71,0.00,,,0.55,Wunderground v.1.15,2013-05-18 03:55:00,
2013-05-17 22:58:00,53.8,44.6,29.97,ESE,111,11.0,17.0,71,0.00,,,0.55,Wunderground v.1.15,2013-05-18 03:58:00,
2013-05-17 23:02:00,53.8,44.6,29.97,East,94,9.0,10.0,71,0.00,,,0.55,Wunderground v.1.15,2013-05-18 04:02:00,
2013-05-17 23:03:00,53.8,44.6,29.97,East,100,13.0,14.0,71,0.00,,,0.55,Wunderground v.1.15,2013-05-18 04:03:00,
2013-05-17 23:04:00,53.8,44.2,29.97,East,83,12.0,15.0,70,0.00,,,0.55,Wunderground v.1.15,2013-05-18 04:04:00,
2013-05-17 23:07:00,53.8,44.2,29.97,NE,44,9.0,15.0,70,0.00,,,0.55,Wunderground v.1.15,2013-05-18 04:07:00,
2013-05-17 23:08:00,53.8,44.2,29.97,SE,129,10.0,15.0,70,0.00,,,0.55,Wunderground v.1.15,2013-05-18 04:08:00,
2013-05-17 23:10:00,53.8,44.6,29.96,East,94,11.0,15.0,71,0.00,,,0.55,Wunderground v.1.15,2013-05-18 04:10:00,
2013-05-17 23:13:00,53.6,44.4,29.96,East,82,5.0,11.0,71,0.00,,,0.00,Wunderground v.1.15,2013-05-18 04:13:00,
2013-05-17 23:14:00,53.6,44.4,29.96,East,82,13.0,13.0,71,0.00,,,0.00,Wunderground v.1.15,2013-05-18 04:14:00,
2013-05-17 23:18:00,53.5,44.3,29.96,East,85,7.0,14.0,71,0.00,,,0.00,Wunderground v.1.15,2013-05-18 04:18:00,
2013-05-17 23:19:00,53.5,44.3,29.96,ENE,77,8.0,14.0,71,0.00,,,0.00,Wunderground v.1.15,2013-05-18 04:19:00,
2013-05-17 23:20:00,53.5,44.3,29.96,ENE,72,9.0,14.0,71,0.00,,,0.00,Wunderground v.1.15,2013-05-18 04:20:00,
2013-05-17 23:23:00,53.5,44.3,29.96,East,84,10.0,10.0,71,0.00,,,0.00,Wunderground v.1.15,2013-05-18 04:23:00,
2013-05-17 23:24:00,53.5,44.3,29.96,ENE,77,10.0,11.0,71,0.00,,,0.00,Wunderground v.1.15,2013-05-18 04:24:00,
2013-05-17 23:27:00,53.3,44.1,29.95,ESE,108,11.0,11.0,71,0.00,,,0.00,Wunderground v.1.15,2013-05-18 04:27:00,
2013-05-17 23:28:00,53.2,44.4,29.95,East,84,10.0,11.0,72,0.00,,,0.00,Wunderground v.1.15,2013-05-18 04:28:00,
2013-05-17 23:30:00,53.2,44.4,29.95,East,94,9.0,14.0,72,0.00,,,0.00,Wunderground v.1.15,2013-05-18 04:30:00,
2013-05-17 23:32:00,53.1,44.3,29.95,ESE,103,9.0,14.0,72,0.00,,,0.00,Wunderground v.1.15,2013-05-18 04:32:00,
2013-05-17 23:33:00,53.1,44.3,29.95,ESE,105,7.0,10.0,72,0.00,,,0.00,Wunderground v.1.15,2013-05-18 04:33:00,
2013-05-17 23:34:00,53.1,44.3,29.95,East,91,10.0,10.0,72,0.00,,,0.00,Wunderground v.1.15,2013-05-18 04:34:00,
2013-05-17 23:38:00,52.9,44.1,29.95,East,82,7.0,11.0,72,0.00,,,0.00,Wunderground v.1.15,2013-05-18 04:38:00,
2013-05-17 23:39:00,52.9,44.1,29.95,East,89,11.0,13.0,72,0.00,,,0.00,Wunderground v.1.15,2013-05-18 04:39:00,
2013-05-17 23:42:00,52.8,44.0,29.95,ENE,73,10.0,13.0,72,0.00,,,0.00,Wunderground v.1.15,2013-05-18 04:42:00,
2013-05-17 23:43:00,52.8,44.0,29.95,East,86,12.0,12.0,72,0.00,,,0.00,Wunderground v.1.15,2013-05-18 04:43:00,
2013-05-17 23:48:00,52.5,44.1,29.95,ENE,71,7.0,12.0,73,0.00,,,0.00,Wunderground v.1.15,2013-05-18 04:48:00,
2013-05-17 23:49:00,52.5,44.1,29.95,ENE,77,7.0,12.0,73,0.00,,,0.00,Wunderground v.1.15,2013-05-18 04:49:00,
2013-05-17 23:50:00,52.3,43.9,29.95,ENE,59,9.0,12.0,73,0.00,,,0.00,Wunderground v.1.15,2013-05-18 04:50:00,
2013-05-17 23:51:00,52.3,43.9,29.95,ENE,66,4.0,12.0,73,0.00,,,0.00,Wunderground v.1.15,2013-05-18 04:51:00,
2013-05-17 23:54:00,52.0,44.0,29.95,ENE,60,8.0,11.0,74,0.00,,,0.00,Wunderground v.1.15,2013-05-18 04:54:00,
2013-05-17 23:55:00,52.0,44.0,29.95,ENE,71,9.0,11.0,74,0.00,,,0.00,Wunderground v.1.15,2013-05-18 04:55:00,
2013-05-17 23:58:00,51.7,44.0,29.95,ENE,73,11.0,11.0,75,0.00,,,0.00,Wunderground v.1.15,2013-05-18 04:58:00,
2013-05-17 23:59:00,51.7,44.0,29.95,ENE,73,6.0,11.0,75,0.00,,,0.00,Wunderground v.1.15,2013-05-18 04:59:00,